Time,TemperatureF,DewpointF,PressureIn,WindDirection,WindDirectionDegrees,WindSpeedMPH,WindSpeedGustMPH,Humidity,HourlyPrecipIn,Conditions,Clouds,dailyrainin,SolarRadiationWatts/m^2,SoftwareType,DateUTC
2013-09-20 00:00:00,66.6,66.6,29.89,SSW,194,3.9,4.0,100,0.00,,,0.00,0.00,VWS V14.01,2013-09-20 04:00:00,
2013-09-20 00:01:00,66.7,66.7,29.89,SSW,194,4.7,4.7,100,0.00,,,0.00,0.00,VWS V14.01,2013-09-20 04:01:00,
2013-09-20 00:02:00,66.7,66.6,29.88,South,191,4.2,4.7,100,0.00,,,0.00,0.43,VWS V14.01,2013-09-20 04:02:00,
2013-09-20 00:06:00,66.4,66.2,29.89,South,187,2.7,2.7,99,0.00,,,0.00,0.00,VWS V14.01,2013-09-20 04:06:00,
2013-09-20 00:07:00,66.6,66.5,29.89,South,190,3.0,3.0,99,0.00,,,0.00,0.00,VWS V14.01,2013-09-20 04:07:00,
2013-09-20 00:08:00,66.6,66.4,29.89,SSW,194,2.5,3.2,99,0.00,,,0.00,0.73,VWS V14.01,2013-09-20 04:08:00,
2013-09-20 00:11:00,66.7,66.4,29.88,SSW,206,3.4,3.4,99,0.00,,,0.00,0.43,VWS V14.01,2013-09-20 04:11:00,
2013-09-20 00:12:00,66.5,66.2,29.89,SSW,195,3.0,3.4,99,0.00,,,0.00,0.00,VWS V14.01,2013-09-20 04:12:00,
2013-09-20 00:13:00,66.6,66.2,29.89,South,188,2.5,3.0,99,0.00,,,0.00,0.00,VWS V14.01,2013-09-20 04:13:00,
2013-09-20 00:14:00,66.6,66.2,29.89,South,190,3.2,3.2,99,0.00,,,0.00,0.00,VWS V14.01,2013-09-20 04:14:00,
2013-09-20 00:16:00,66.6,66.1,29.88,SSW,193,2.8,3.4,99,0.00,,,0.00,0.00,VWS V14.01,2013-09-20 04:16:00,
2013-09-20 00:18:00,66.5,66.0,29.89,South,189,2.8,3.9,98,0.00,,,0.00,0.00,VWS V14.01,2013-09-20 04:18:00,
2013-09-20 00:19:00,66.4,66.0,29.89,SSW,195,2.3,2.3,98,0.00,,,0.00,0.00,VWS V14.01,2013-09-20 04:19:00,
2013-09-20 00:21:00,66.7,66.3,29.88,South,183,4.9,4.9,99,0.00,,,0.00,0.43,VWS V14.01,2013-09-20 04:21:00,
2013-09-20 00:22:00,66.8,66.4,29.88,South,189,3.2,4.9,99,0.00,,,0.00,0.00,VWS V14.01,2013-09-20 04:22:00,
2013-09-20 00:23:00,66.8,66.3,29.88,South,181,3.7,3.7,99,0.00,,,0.00,0.43,VWS V14.01,2013-09-20 04:23:00,
2013-09-20 00:25:00,66.7,66.2,29.88,SSW,208,4.5,4.5,98,0.00,,,0.00,0.00,VWS V14.01,2013-09-20 04:25:00,
2013-09-20 00:27:00,66.8,66.2,29.89,South,189,2.7,6.1,98,0.00,,,0.00,0.00,VWS V14.01,2013-09-20 04:27:00,
2013-09-20 00:28:00,67.1,66.4,29.89,SSW,201,5.7,5.7,98,0.00,,,0.00,0.12,VWS V14.01,2013-09-20 04:28:00,
2013-09-20 00:29:00,66.9,66.2,29.88,SSW,195,4.7,5.7,98,0.00,,,0.00,0.43,VWS V14.01,2013-09-20 04:29:00,
2013-09-20 00:32:00,66.7,65.8,29.88,SSW,201,3.7,4.5,97,0.00,,,0.00,0.00,VWS V14.01,2013-09-20 04:32:00,
2013-09-20 00:33:00,66.8,66.0,29.88,SW,220,6.6,6.6,97,0.00,,,0.00,0.00,VWS V14.01,2013-09-20 04:33:00,
2013-09-20 00:35:00,66.5,65.7,29.89,SSW,205,4.9,4.9,97,0.00,,,0.00,0.00,VWS V14.01,2013-09-20 04:35:00,
2013-09-20 00:38:00,66.3,65.5,29.88,SSW,202,2.8,4.4,97,0.00,,,0.00,0.00,VWS V14.01,2013-09-20 04:38:00,
2013-09-20 00:39:00,66.5,65.7,29.89,SSW,206,3.4,4.2,97,0.00,,,0.00,0.00,VWS V14.01,2013-09-20 04:39:00,
2013-09-20 00:40:00,67.0,66.3,29.89,SSW,201,5.6,5.6,98,0.00,,,0.00,0.00,VWS V14.01,2013-09-20 04:40:00,
2013-09-20 00:43:00,67.1,66.3,29.89,SSW,205,4.2,6.1,97,0.00,,,0.00,0.67,VWS V14.01,2013-09-20 04:43:00,
2013-09-20 00:44:00,67.3,66.4,29.89,SSW,212,5.6,6.1,97,0.00,,,0.00,0.00,VWS V14.01,2013-09-20 04:44:00,
2013-09-20 00:45:00,67.0,66.2,29.91,SW,218,5.2,5.6,97,0.00,,,0.00,0.00,VWS V14.01,2013-09-20 04:45:00,
2013-09-20 00:49:00,66.7,65.8,29.89,SSW,192,5.7,5.7,97,0.00,,,0.00,0.43,VWS V14.01,2013-09-20 04:49:00,
2013-09-20 00:50:00,67.4,66.6,29.89,SSW,205,5.4,5.4,97,0.00,,,0.00,0.43,VWS V14.01,2013-09-20 04:50:00,
2013-09-20 00:51:00,67.2,66.4,29.89,SSW,197,3.9,4.4,97,0.00,,,0.00,0.00,VWS V14.01,2013-09-20 04:51:00,
2013-09-20 00:55:00,66.6,65.7,29.89,SSW,199,3.0,7.1,97,0.00,,,0.00,0.00,VWS V14.01,2013-09-20 04:55:00,
2013-09-20 00:56:00,66.6,65.7,29.89,SSW,199,3.0,7.1,97,0.00,,,0.00,0.00,VWS V14.01,2013-09-20 04:56:00,
2013-09-20 00:58:00,66.9,66.0,29.89,SSW,200,4.4,4.4,97,0.00,,,0.00,0.00,VWS V14.01,2013-09-20 04:58:00,
2013-09-20 01:01:00,67.0,66.2,29.91,South,189,4.2,6.4,97,0.00,,,0.00,0.00,VWS V14.01,2013-09-20 05:01:00,
2013-09-20 01:02:00,67.3,66.4,29.89,SSW,195,6.1,6.4,97,0.00,,,0.00,0.00,VWS V14.01,2013-09-20 05:02:00,
2013-09-20 01:04:00,67.0,66.2,29.88,South,182,4.5,6.4,97,0.00,,,0.00,0.43,VWS V14.01,2013-09-20 05:04:00,
2013-09-20 01:05:00,67.0,66.1,29.88,SSW,195,5.7,6.4,97,0.00,,,0.00,0.00,VWS V14.01,2013-09-20 05:05:00,
2013-09-20 01:07:00,67.4,66.5,29.89,SSW,198,6.3,6.4,97,0.00,,,0.00,0.00,VWS V14.01,2013-09-20 05:07:00,
2013-09-20 01:10:00,66.7,65.7,29.88,SSW,206,3.5,6.4,97,0.00,,,0.00,0.12,VWS V14.01,2013-09-20 05:10:00,
2013-09-20 01:11:00,67.1,66.1,29.88,SSW,211,6.4,6.4,97,0.00,,,0.00,0.00,VWS V14.01,2013-09-20 05:11:00,
2013-09-20 01:14:00,66.8,65.9,29.89,SW,215,4.4,6.4,97,0.00,,,0.00,0.00,VWS V14.01,2013-09-20 05:14:00,
2013-09-20 01:15:00,66.8,65.9,29.89,SSW,202,5.4,6.4,97,0.00,,,0.00,0.00,VWS V14.01,2013-09-20 05:15:00,
2013-09-20 01:16:00,66.6,65.8,29.89,SSW,211,3.5,6.4,97,0.00,,,0.00,0.00,VWS V14.01,2013-09-20 05:16:00,
2013-09-20 01:17:00,66.8,65.9,29.89,SW,214,4.5,6.4,97,0.00,,,0.00,0.00,VWS V14.01,2013-09-20 05:17:00,
2013-09-20 01:18:00,66.8,65.9,29.89,SSW,204,4.0,6.4,97,0.00,,,0.00,0.00,VWS V14.01,2013-09-20 05:18:00,
2013-09-20 01:20:00,66.5,65.7,29.89,SSW,208,3.2,6.4,97,0.00,,,0.00,0.43,VWS V14.01,2013-09-20 05:20:00,
2013-09-20 01:22:00,66.8,66.0,29.89,SSW,211,5.7,6.9,97,0.00,,,0.00,0.00,VWS V14.01,2013-09-20 05:22:00,
2013-09-20 01:23:00,66.8,66.1,29.88,South,187,3.7,6.9,97,0.00,,,0.00,0.00,VWS V14.01,2013-09-20 05:23:00,
2013-09-20 01:25:00,66.9,66.1,29.89,SSW,197,3.4,6.9,97,0.00,,,0.00,0.00,VWS V14.01,2013-09-20 05:25:00,
2013-09-20 01:26:00,66.9,66.2,29.89,SSW,197,3.4,6.9,98,0.00,,,0.00,0.00,VWS V14.01,2013-09-20 05:26:00,
2013-09-20 01:28:00,66.9,66.2,29.89,SSW,206,5.2,6.9,97,0.00,,,0.00,0.00,VWS V14.01,2013-09-20 05:28:00,
2013-09-20 01:31:00,66.9,66.2,29.88,SSW,199,6.8,6.9,98,0.00,,,0.00,0.00,VWS V14.01,2013-09-20 05:31:00,
2013-09-20 01:33:00,66.8,66.1,29.88,SSW,203,7.3,7.3,97,0.00,,,0.00,0.00,VWS V14.01,2013-09-20 05:33:00,
2013-09-20 01:36:00,66.6,65.8,29.88,SSW,195,4.9,7.3,97,0.00,,,0.00,0.00,VWS V14.01,2013-09-20 05:36:00,
2013-09-20 01:37:00,66.8,66.1,29.87,SSW,206,6.3,7.3,98,0.00,,,0.00,0.00,VWS V14.01,2013-09-20 05:37:00,
2013-09-20 01:38:00,66.6,65.9,29.88,SSW,208,5.6,7.3,98,0.00,,,0.00,0.00,VWS V14.01,2013-09-20 05:38:00,
2013-09-20 01:40:00,66.7,66.0,29.87,SSW,207,5.6,7.3,98,0.00,,,0.00,0.00,VWS V14.01,2013-09-20 05:40:00,
2013-09-20 01:42:00,66.8,65.9,29.90,SW,220,6.1,7.3,97,0.00,,,0.00,0.00,VWS V14.01,2013-09-20 05:42:00,
2013-09-20 01:46:00,66.3,65.7,29.88,South,188,5.4,7.3,98,0.00,,,0.00,0.00,VWS V14.01,2013-09-20 05:46:00,
2013-09-20 01:48:00,66.6,66.1,29.88,SSW,213,5.9,7.3,98,0.00,,,0.00,0.00,VWS V14.01,2013-09-20 05:48:00,
2013-09-20 01:49:00,66.5,66.0,29.88,SW,231,4.4,7.3,98,0.00,,,0.00,0.00,VWS V14.01,2013-09-20 05:49:00,
2013-09-20 01:50:00,66.4,65.9,29.89,SSW,199,4.7,7.3,98,0.00,,,0.00,0.00,VWS V14.01,2013-09-20 05:50:00,
2013-09-20 01:51:00,66.9,64.8,29.88,SW,216,8.5,8.5,93,0.00,,,0.00,0.00,VWS V14.01,2013-09-20 05:51:00,
2013-09-20 01:53:00,66.6,66.2,29.89,SSW,197,6.4,8.5,98,0.00,,,0.00,0.43,VWS V14.01,2013-09-20 05:53:00,
2013-09-20 01:54:00,66.5,66.1,29.88,SSW,202,4.5,8.5,98,0.00,,,0.00,0.00,VWS V14.01,2013-09-20 05:54:00,
2013-09-20 01:56:00,66.7,65.2,29.88,SSW,198,5.2,8.5,95,0.00,,,0.00,0.00,VWS V14.01,2013-09-20 05:56:00,
2013-09-20 01:57:00,66.7,65.2,29.88,SSW,198,5.2,8.5,95,0.00,,,0.00,0.00,VWS V14.01,2013-09-20 05:57:00,
2013-09-20 02:00:00,66.7,66.2,29.88,SSW,205,5.9,8.5,98,0.00,,,0.00,0.00,VWS V14.01,2013-09-20 06:00:00,
2013-09-20 02:01:00,66.7,66.3,29.89,SW,236,5.4,8.5,99,0.00,,,0.00,0.00,VWS V14.01,2013-09-20 06:01:00,
2013-09-20 02:03:00,66.8,66.4,29.87,SSW,211,6.8,8.5,99,0.00,,,0.00,0.00,VWS V14.01,2013-09-20 06:03:00,
2013-09-20 02:05:00,66.9,66.5,29.88,SSW,205,6.1,8.5,99,0.00,,,0.00,0.00,VWS V14.01,2013-09-20 06:05:00,
2013-09-20 02:06:00,66.9,66.5,29.88,SSW,199,5.9,8.5,99,0.00,,,0.00,0.00,VWS V14.01,2013-09-20 06:06:00,
2013-09-20 02:07:00,66.8,66.4,29.89,SSW,212,3.7,8.5,99,0.00,,,0.00,0.00,VWS V14.01,2013-09-20 06:07:00,
2013-09-20 02:10:00,66.9,66.5,29.88,South,187,6.4,8.5,99,0.00,,,0.00,0.00,VWS V14.01,2013-09-20 06:10:00,
2013-09-20 02:12:00,66.8,66.4,29.88,SSW,203,4.5,8.5,99,0.00,,,0.00,0.00,VWS V14.01,2013-09-20 06:12:00,
2013-09-20 02:14:00,66.9,66.5,29.88,SW,219,6.8,10.0,99,0.00,,,0.00,0.00,VWS V14.01,2013-09-20 06:14:00,
2013-09-20 02:15:00,67.0,66.6,29.88,SSW,199,6.6,10.0,99,0.00,,,0.00,0.00,VWS V14.01,2013-09-20 06:15:00,
2013-09-20 02:16:00,67.2,66.9,29.88,SSW,202,7.3,10.0,99,0.00,,,0.00,0.00,VWS V14.01,2013-09-20 06:16:00,
2013-09-20 02:17:00,67.0,66.7,29.87,SSW,193,6.9,10.0,99,0.00,,,0.00,0.73,VWS V14.01,2013-09-20 06:17:00,
2013-09-20 02:19:00,66.9,66.5,29.86,SSW,206,4.4,10.0,99,0.00,,,0.00,0.00,VWS V14.01,2013-09-20 06:19:00,
2013-09-20 02:21:00,67.1,66.7,29.87,SSW,206,6.3,10.0,99,0.00,,,0.00,0.00,VWS V14.01,2013-09-20 06:21:00,
2013-09-20 02:22:00,67.1,66.7,29.87,SSW,206,6.3,10.0,99,0.00,,,0.00,0.00,VWS V14.01,2013-09-20 06:22:00,
2013-09-20 02:23:00,66.9,66.4,29.87,SSW,212,2.5,10.0,98,0.00,,,0.00,0.00,VWS V14.01,2013-09-20 06:23:00,
2013-09-20 02:25:00,67.0,66.6,29.87,SSW,197,3.9,10.0,99,0.00,,,0.00,0.00,VWS V14.01,2013-09-20 06:25:00,
2013-09-20 02:28:00,66.9,66.5,29.86,SW,220,4.2,10.0,99,0.00,,,0.00,0.00,VWS V14.01,2013-09-20 06:28:00,
2013-09-20 02:29:00,66.9,66.5,29.86,SW,220,4.2,10.0,99,0.00,,,0.00,0.00,VWS V14.01,2013-09-20 06:29:00,
2013-09-20 02:32:00,67.2,66.8,29.86,SSW,205,4.7,10.0,99,0.00,,,0.00,0.00,VWS V14.01,2013-09-20 06:32:00,
2013-09-20 02:33:00,67.0,66.6,29.87,SSW,204,2.3,10.0,99,0.00,,,0.00,0.00,VWS V14.01,2013-09-20 06:33:00,
2013-09-20 02:35:00,67.0,66.7,29.88,SW,229,2.7,10.0,99,0.00,,,0.00,0.00,VWS V14.01,2013-09-20 06:35:00,
2013-09-20 02:37:00,67.1,66.8,29.90,SSW,199,2.7,10.0,99,0.00,,,0.00,0.67,VWS V14.01,2013-09-20 06:37:00,
2013-09-20 02:38:00,67.3,67.0,29.86,South,190,3.4,10.0,99,0.00,,,0.00,0.00,VWS V14.01,2013-09-20 06:38:00,
2013-09-20 02:39:00,67.2,66.9,29.87,SSW,208,3.2,10.0,99,0.00,,,0.00,0.00,VWS V14.01,2013-09-20 06:39:00,
2013-09-20 02:40:00,67.2,66.9,29.87,SW,215,2.2,10.0,99,0.00,,,0.00,0.00,VWS V14.01,2013-09-20 06:40:00,
2013-09-20 02:41:00,67.2,66.9,29.87,SW,215,2.2,10.0,99,0.00,,,0.00,0.00,VWS V14.01,2013-09-20 06:41:00,
2013-09-20 02:42:00,67.3,67.0,29.88,South,188,4.2,10.0,99,0.00,,,0.00,0.00,VWS V14.01,2013-09-20 06:42:00,
2013-09-20 02:43:00,67.3,67.0,29.87,SSW,198,2.8,10.0,99,0.00,,,0.00,0.00,VWS V14.01,2013-09-20 06:43:00,
2013-09-20 02:44:00,67.6,67.3,29.86,SSW,208,6.8,10.0,99,0.00,,,0.00,0.00,VWS V14.01,2013-09-20 06:44:00,
2013-09-20 02:45:00,67.3,67.0,29.86,SSW,200,4.0,10.0,99,0.00,,,0.00,0.43,VWS V14.01,2013-09-20 06:45:00,
2013-09-20 02:47:00,67.4,67.1,29.86,SSW,205,4.0,10.0,99,0.00,,,0.00,0.12,VWS V14.01,2013-09-20 06:47:00,
2013-09-20 02:49:00,67.2,66.9,29.86,SSW,202,4.0,10.0,99,0.00,,,0.00,0.00,VWS V14.01,2013-09-20 06:49:00,
2013-09-20 02:51:00,67.2,66.9,29.86,SSW,206,4.7,10.0,99,0.00,,,0.00,0.00,VWS V14.01,2013-09-20 06:51:00,
2013-09-20 02:52:00,67.1,66.8,29.87,South,188,2.5,10.0,99,0.00,,,0.00,0.00,VWS V14.01,2013-09-20 06:52:00,
2013-09-20 02:55:00,67.2,67.0,29.86,SW,222,5.4,10.0,99,0.00,,,0.00,0.12,VWS V14.01,2013-09-20 06:55:00,
2013-09-20 02:56:00,67.2,66.9,29.86,SSW,199,2.7,10.0,99,0.00,,,0.00,0.00,VWS V14.01,2013-09-20 06:56:00,
2013-09-20 02:57:00,67.2,66.9,29.87,SSW,204,4.0,10.0,99,0.00,,,0.00,0.00,VWS V14.01,2013-09-20 06:57:00,
2013-09-20 02:59:00,67.2,67.0,29.86,SSW,203,4.2,10.0,99,0.00,,,0.00,0.00,VWS V14.01,2013-09-20 06:59:00,
2013-09-20 03:01:00,67.1,66.9,29.85,SSW,199,3.4,10.0,99,0.00,,,0.00,0.00,VWS V14.01,2013-09-20 07:01:00,
2013-09-20 03:02:00,67.1,66.9,29.86,South,191,3.5,3.7,99,0.00,,,0.00,0.00,VWS V14.01,2013-09-20 07:02:00,
2013-09-20 03:04:00,67.0,66.8,29.86,SSW,199,2.8,3.5,99,0.00,,,0.00,0.00,VWS V14.01,2013-09-20 07:04:00,
2013-09-20 03:07:00,67.3,67.2,29.85,SSW,213,6.3,6.3,100,0.00,,,0.00,0.00,VWS V14.01,2013-09-20 07:07:00,
2013-09-20 03:09:00,66.9,66.8,29.85,SSW,205,3.0,5.1,100,0.00,,,0.00,0.43,VWS V14.01,2013-09-20 07:09:00,
2013-09-20 03:10:00,66.9,66.8,29.86,SSW,212,2.7,5.1,100,0.00,,,0.00,0.00,VWS V14.01,2013-09-20 07:10:00,
2013-09-20 03:12:00,67.4,67.3,29.84,SSW,203,6.9,6.9,100,0.00,,,0.00,0.00,VWS V14.01,2013-09-20 07:12:00,
2013-09-20 03:14:00,66.9,66.8,29.88,SW,221,3.5,3.5,100,0.00,,,0.00,0.00,VWS V14.01,2013-09-20 07:14:00,
2013-09-20 03:16:00,66.9,66.9,29.86,SSW,209,3.7,4.5,100,0.00,,,0.00,0.00,VWS V14.01,2013-09-20 07:16:00,
2013-09-20 03:17:00,67.0,66.5,29.85,SSW,213,1.6,3.7,98,0.00,,,0.00,0.73,VWS V14.01,2013-09-20 07:17:00,
2013-09-20 03:18:00,66.9,66.8,29.86,SSW,208,1.5,1.6,100,0.00,,,0.00,0.73,VWS V14.01,2013-09-20 07:18:00,
2013-09-20 03:21:00,66.9,66.9,29.84,SSW,201,2.5,2.5,100,0.00,,,0.00,0.00,VWS V14.01,2013-09-20 07:21:00,
2013-09-20 03:22:00,66.8,66.7,29.84,SW,216,0.0,2.5,100,0.00,,,0.00,0.43,VWS V14.01,2013-09-20 07:22:00,
2013-09-20 03:24:00,66.6,66.6,29.86,SSW,199,2.5,2.7,100,0.00,,,0.00,0.00,VWS V14.01,2013-09-20 07:24:00,
2013-09-20 03:26:00,67.0,67.0,29.85,SSW,209,4.0,4.0,100,0.00,,,0.00,0.00,VWS V14.01,2013-09-20 07:26:00,
2013-09-20 03:28:00,67.0,67.0,29.85,SSW,200,2.5,4.0,100,0.00,,,0.00,0.00,VWS V14.01,2013-09-20 07:28:00,
2013-09-20 03:29:00,67.0,67.0,29.85,SSW,200,2.5,4.0,100,0.00,,,0.00,0.00,VWS V14.01,2013-09-20 07:29:00,
2013-09-20 03:30:00,67.0,67.0,29.85,SW,224,1.8,4.5,100,0.00,,,0.00,0.00,VWS V14.01,2013-09-20 07:30:00,
2013-09-20 03:31:00,66.9,66.9,29.85,SSW,209,3.2,3.2,100,0.00,,,0.00,0.00,VWS V14.01,2013-09-20 07:31:00,
2013-09-20 03:33:00,67.0,67.0,29.85,SSW,213,3.7,3.9,100,0.00,,,0.00,0.00,VWS V14.01,2013-09-20 07:33:00,
2013-09-20 03:34:00,67.1,67.1,29.85,SSW,204,4.5,4.7,100,0.00,,,0.00,0.00,VWS V14.01,2013-09-20 07:34:00,
2013-09-20 03:36:00,67.0,67.0,29.85,SSW,197,2.0,3.9,100,0.00,,,0.00,0.00,VWS V14.01,2013-09-20 07:36:00,
2013-09-20 03:37:00,66.9,66.9,29.84,SSW,213,1.1,3.5,100,0.00,,,0.00,0.00,VWS V14.01,2013-09-20 07:37:00,
2013-09-20 03:38:00,67.0,67.0,29.85,South,177,1.5,3.4,100,0.00,,,0.00,0.00,VWS V14.01,2013-09-20 07:38:00,
2013-09-20 03:41:00,67.1,67.1,29.83,SSW,205,4.7,4.7,100,0.00,,,0.00,0.00,VWS V14.01,2013-09-20 07:41:00,
2013-09-20 03:42:00,67.0,67.0,29.83,SSW,208,3.2,4.7,100,0.00,,,0.00,0.00,VWS V14.01,2013-09-20 07:42:00,
2013-09-20 03:43:00,67.1,67.1,29.84,SSW,202,3.5,4.2,100,0.00,,,0.00,0.00,VWS V14.01,2013-09-20 07:43:00,
2013-09-20 03:44:00,66.8,66.8,29.84,SW,215,1.0,3.5,100,0.00,,,0.00,0.00,VWS V14.01,2013-09-20 07:44:00,
2013-09-20 03:45:00,66.7,66.7,29.85,SW,222,1.1,1.1,100,0.00,,,0.00,0.00,VWS V14.01,2013-09-20 07:45:00,
2013-09-20 03:46:00,66.8,66.8,29.84,SW,223,2.5,2.7,100,0.00,,,0.00,0.00,VWS V14.01,2013-09-20 07:46:00,
2013-09-20 03:47:00,66.8,66.8,29.84,SW,218,1.6,2.7,100,0.00,,,0.00,0.00,VWS V14.01,2013-09-20 07:47:00,
2013-09-20 03:49:00,66.9,66.9,29.84,SW,216,2.0,4.4,100,0.00,,,0.00,0.00,VWS V14.01,2013-09-20 07:49:00,
2013-09-20 03:52:00,66.9,66.9,29.86,SW,215,3.0,3.0,100,0.00,,,0.00,0.00,VWS V14.01,2013-09-20 07:52:00,
2013-09-20 03:54:00,67.1,67.1,29.84,SSW,209,2.8,3.9,100,0.00,,,0.00,0.00,VWS V14.01,2013-09-20 07:54:00,
2013-09-20 03:55:00,67.1,67.1,29.84,SSW,209,2.8,3.9,100,0.00,,,0.00,0.00,VWS V14.01,2013-09-20 07:55:00,
2013-09-20 03:57:00,67.1,67.1,29.83,SSW,203,1.3,1.3,100,0.00,,,0.00,0.00,VWS V14.01,2013-09-20 07:57:00,
2013-09-20 03:58:00,67.1,67.1,29.83,SSW,203,1.3,1.3,100,0.00,,,0.00,0.00,VWS V14.01,2013-09-20 07:58:00,
2013-09-20 03:59:00,66.9,66.9,29.84,SW,216,2.8,3.2,100,0.00,,,0.00,0.00,VWS V14.01,2013-09-20 07:59:00,
2013-09-20 04:00:00,66.7,66.7,29.84,SSW,201,2.5,3.4,100,0.00,,,0.00,0.00,VWS V14.01,2013-09-20 08:00:00,
2013-09-20 04:01:00,66.8,66.8,29.84,SW,220,3.7,3.7,100,0.00,,,0.00,0.00,VWS V14.01,2013-09-20 08:01:00,
2013-09-20 04:03:00,67.1,67.1,29.85,SW,214,4.2,4.9,100,0.00,,,0.00,0.00,VWS V14.01,2013-09-20 08:03:00,
2013-09-20 04:04:00,66.9,66.9,29.84,SSW,213,4.2,4.9,100,0.00,,,0.00,0.00,VWS V14.01,2013-09-20 08:04:00,
2013-09-20 04:06:00,66.8,66.8,29.84,SSW,206,1.6,4.9,100,0.00,,,0.00,0.00,VWS V14.01,2013-09-20 08:06:00,
2013-09-20 04:07:00,66.8,66.8,29.84,SSW,206,1.6,4.9,100,0.00,,,0.00,0.00,VWS V14.01,2013-09-20 08:07:00,
2013-09-20 04:09:00,67.1,67.1,29.84,SSW,211,4.9,4.9,100,0.00,,,0.00,0.43,VWS V14.01,2013-09-20 08:09:00,
2013-09-20 04:11:00,67.1,67.1,29.84,SSW,201,4.4,5.2,100,0.00,,,0.00,0.00,VWS V14.01,2013-09-20 08:11:00,
2013-09-20 04:13:00,67.2,67.2,29.85,SSW,210,3.2,5.2,100,0.00,,,0.00,0.00,VWS V14.01,2013-09-20 08:13:00,
2013-09-20 04:14:00,67.2,67.2,29.84,SSW,200,4.5,5.2,100,0.00,,,0.00,0.00,VWS V14.01,2013-09-20 08:14:00,
2013-09-20 04:16:00,67.1,67.1,29.84,SSW,194,3.5,5.2,100,0.00,,,0.00,0.00,VWS V14.01,2013-09-20 08:16:00,
2013-09-20 04:17:00,67.2,67.2,29.84,SW,216,5.9,5.9,100,0.00,,,0.00,0.00,VWS V14.01,2013-09-20 08:17:00,
2013-09-20 04:19:00,66.9,66.9,29.84,SSW,202,3.9,5.9,100,0.00,,,0.00,0.00,VWS V14.01,2013-09-20 08:19:00,
2013-09-20 04:20:00,67.0,67.0,29.84,SW,217,4.2,5.9,100,0.00,,,0.00,0.12,VWS V14.01,2013-09-20 08:20:00,
2013-09-20 04:22:00,67.2,67.2,29.84,SW,214,4.9,5.9,100,0.00,,,0.00,0.00,VWS V14.01,2013-09-20 08:22:00,
2013-09-20 04:24:00,67.3,67.3,29.83,SSW,197,4.7,5.9,100,0.00,,,0.00,0.00,VWS V14.01,2013-09-20 08:24:00,
2013-09-20 04:25:00,67.0,67.0,29.84,SSW,199,3.5,5.9,100,0.00,,,0.00,0.00,VWS V14.01,2013-09-20 08:25:00,
2013-09-20 04:28:00,67.3,67.3,29.83,SSW,213,4.2,6.1,100,0.00,,,0.00,0.00,VWS V14.01,2013-09-20 08:28:00,
2013-09-20 04:29:00,67.2,67.2,29.83,SSW,201,4.9,6.1,100,0.00,,,0.00,0.00,VWS V14.01,2013-09-20 08:29:00,
2013-09-20 04:30:00,67.3,67.3,29.83,SSW,209,4.2,6.1,100,0.00,,,0.00,0.73,VWS V14.01,2013-09-20 08:30:00,
2013-09-20 04:32:00,67.3,67.3,29.83,SW,229,3.2,6.1,100,0.00,,,0.00,0.00,VWS V14.01,2013-09-20 08:32:00,
2013-09-20 04:35:00,67.6,67.6,29.83,SW,221,4.5,6.8,100,0.00,,,0.00,0.00,VWS V14.01,2013-09-20 08:35:00,
2013-09-20 04:36:00,67.5,67.5,29.84,SSW,201,4.9,6.8,100,0.00,,,0.00,0.00,VWS V14.01,2013-09-20 08:36:00,
2013-09-20 04:37:00,67.5,67.5,29.84,SW,215,4.7,6.8,100,0.00,,,0.00,0.00,VWS V14.01,2013-09-20 08:37:00,
2013-09-20 04:38:00,67.5,67.5,29.82,SSW,208,5.2,6.8,100,0.00,,,0.00,0.00,VWS V14.01,2013-09-20 08:38:00,
2013-09-20 04:41:00,67.6,67.6,29.83,SSW,207,3.9,6.8,100,0.00,,,0.00,0.00,VWS V14.01,2013-09-20 08:41:00,
2013-09-20 04:42:00,67.6,67.6,29.83,SW,226,3.5,6.8,100,0.00,,,0.00,0.00,VWS V14.01,2013-09-20 08:42:00,
2013-09-20 04:43:00,67.6,67.6,29.86,SW,229,4.2,6.8,100,0.00,,,0.00,0.00,VWS V14.01,2013-09-20 08:43:00,
2013-09-20 04:46:00,67.7,67.7,29.86,SSW,207,5.6,8.3,100,0.00,,,0.00,0.00,VWS V14.01,2013-09-20 08:46:00,
2013-09-20 04:48:00,67.7,67.7,29.82,SSW,199,4.7,8.3,100,0.00,,,0.00,0.00,VWS V14.01,2013-09-20 08:48:00,
2013-09-20 04:49:00,67.6,67.6,29.82,SSW,202,5.7,8.3,100,0.00,,,0.00,0.00,VWS V14.01,2013-09-20 08:49:00,
2013-09-20 04:50:00,67.6,67.6,29.82,SSW,203,5.4,8.3,100,0.00,,,0.00,0.00,VWS V14.01,2013-09-20 08:50:00,
2013-09-20 04:52:00,67.6,67.6,29.83,South,190,4.7,8.3,100,0.00,,,0.00,0.00,VWS V14.01,2013-09-20 08:52:00,
2013-09-20 04:53:00,67.8,67.8,29.83,SSW,198,3.7,8.3,100,0.00,,,0.00,0.00,VWS V14.01,2013-09-20 08:53:00,
2013-09-20 04:54:00,67.4,67.4,29.83,SSW,211,2.7,8.3,100,0.00,,,0.00,0.00,VWS V14.01,2013-09-20 08:54:00,
2013-09-20 04:57:00,67.7,67.7,29.82,SW,216,6.4,8.3,100,0.00,,,0.00,0.00,VWS V14.01,2013-09-20 08:57:00,
2013-09-20 04:58:00,67.7,67.7,29.82,South,184,5.6,8.3,100,0.00,,,0.00,0.00,VWS V14.01,2013-09-20 08:58:00,
2013-09-20 04:59:00,67.7,67.7,29.82,South,184,5.6,8.3,100,0.00,,,0.00,0.00,VWS V14.01,2013-09-20 08:59:00,
2013-09-20 05:00:00,67.6,67.6,29.82,SSW,213,5.2,8.3,100,0.00,,,0.00,0.00,VWS V14.01,2013-09-20 09:00:00,
2013-09-20 05:02:00,67.9,67.9,29.82,SW,217,7.1,7.1,100,0.00,,,0.00,0.43,VWS V14.01,2013-09-20 09:02:00,
2013-09-20 05:04:00,67.7,67.7,29.83,SSW,204,6.8,6.8,100,0.00,,,0.00,0.00,VWS V14.01,2013-09-20 09:04:00,
2013-09-20 05:05:00,67.5,67.5,29.83,SSW,198,3.4,4.7,100,0.00,,,0.00,0.00,VWS V14.01,2013-09-20 09:05:00,
2013-09-20 05:06:00,67.6,67.6,29.83,SSW,212,3.9,3.9,100,0.00,,,0.00,0.73,VWS V14.01,2013-09-20 09:06:00,
2013-09-20 05:07:00,67.6,67.6,29.82,SW,215,4.9,4.9,100,0.00,,,0.00,0.00,VWS V14.01,2013-09-20 09:07:00,
2013-09-20 05:09:00,67.7,67.7,29.82,SSW,212,4.0,6.1,100,0.00,,,0.00,0.43,VWS V14.01,2013-09-20 09:09:00,
2013-09-20 05:11:00,67.8,67.8,29.83,SW,232,3.5,4.5,100,0.00,,,0.00,0.00,VWS V14.01,2013-09-20 09:11:00,
2013-09-20 05:12:00,67.8,67.8,29.83,SW,223,2.8,4.9,100,0.00,,,0.00,0.00,VWS V14.01,2013-09-20 09:12:00,
2013-09-20 05:13:00,67.8,67.8,29.82,SW,220,3.2,4.9,100,0.00,,,0.00,0.00,VWS V14.01,2013-09-20 09:13:00,
2013-09-20 05:15:00,67.7,67.7,29.83,SW,219,3.0,3.0,100,0.00,,,0.00,0.55,VWS V14.01,2013-09-20 09:15:00,
2013-09-20 05:16:00,67.7,67.7,29.83,SW,219,3.0,3.0,100,0.00,,,0.00,0.55,VWS V14.01,2013-09-20 09:16:00,
2013-09-20 05:17:00,67.7,67.7,29.83,SSW,210,1.1,5.4,100,0.00,,,0.00,0.00,VWS V14.01,2013-09-20 09:17:00,
2013-09-20 05:18:00,67.9,67.9,29.82,SSW,213,6.1,6.1,100,0.00,,,0.00,0.00,VWS V14.01,2013-09-20 09:18:00,
2013-09-20 05:19:00,67.6,67.6,29.83,SW,230,3.4,6.1,100,0.00,,,0.00,0.00,VWS V14.01,2013-09-20 09:19:00,
2013-09-20 05:20:00,67.9,67.9,29.83,SW,223,5.2,5.2,100,0.00,,,0.00,0.00,VWS V14.01,2013-09-20 09:20:00,
2013-09-20 05:21:00,67.7,67.7,29.82,SSW,208,2.8,3.5,100,0.00,,,0.00,0.00,VWS V14.01,2013-09-20 09:21:00,
2013-09-20 05:24:00,67.7,67.7,29.83,WSW,239,3.4,3.4,100,0.00,,,0.00,0.00,VWS V14.01,2013-09-20 09:24:00,
2013-09-20 05:25:00,67.7,67.7,29.82,SSW,208,2.2,3.4,100,0.00,,,0.00,0.43,VWS V14.01,2013-09-20 09:25:00,
2013-09-20 05:26:00,67.7,67.7,29.83,SSW,197,4.4,4.4,100,0.00,,,0.00,0.00,VWS V14.01,2013-09-20 09:26:00,
2013-09-20 05:31:00,67.8,67.8,29.82,SW,219,4.2,4.2,100,0.00,,,0.00,0.00,VWS V14.01,2013-09-20 09:31:00,
2013-09-20 05:32:00,67.8,67.8,29.85,SSW,203,5.1,5.1,100,0.00,,,0.00,0.43,VWS V14.01,2013-09-20 09:32:00,
2013-09-20 05:33:00,67.6,67.6,29.82,SW,220,2.8,5.1,100,0.00,,,0.00,0.73,VWS V14.01,2013-09-20 09:33:00,
2013-09-20 05:37:00,67.8,67.8,29.82,SW,221,3.0,3.0,100,0.00,,,0.00,0.00,VWS V14.01,2013-09-20 09:37:00,
2013-09-20 05:38:00,67.7,67.7,29.83,SSW,213,3.9,4.2,100,0.00,,,0.00,0.00,VWS V14.01,2013-09-20 09:38:00,
2013-09-20 05:39:00,67.7,67.7,29.82,SW,216,3.7,3.9,100,0.00,,,0.00,0.00,VWS V14.01,2013-09-20 09:39:00,
2013-09-20 05:42:00,67.7,67.7,29.83,SW,216,2.5,3.5,100,0.00,,,0.00,0.12,VWS V14.01,2013-09-20 09:42:00,
2013-09-20 05:43:00,67.9,67.9,29.82,SSW,209,4.2,4.2,100,0.00,,,0.00,0.00,VWS V14.01,2013-09-20 09:43:00,
2013-09-20 05:44:00,67.7,67.7,29.82,SSW,202,3.7,3.7,100,0.00,,,0.00,0.00,VWS V14.01,2013-09-20 09:44:00,
2013-09-20 05:46:00,67.7,67.7,29.82,SSW,212,3.4,3.4,100,0.00,,,0.00,0.00,VWS V14.01,2013-09-20 09:46:00,
2013-09-20 05:48:00,67.7,67.4,29.82,SW,221,2.5,3.2,99,0.00,,,0.00,0.00,VWS V14.01,2013-09-20 09:48:00,
2013-09-20 05:49:00,67.6,67.7,29.83,SW,220,2.5,3.2,100,0.00,,,0.00,0.00,VWS V14.01,2013-09-20 09:49:00,
2013-09-20 05:50:00,67.8,67.8,29.83,SW,215,1.8,2.5,100,0.00,,,0.00,0.00,VWS V14.01,2013-09-20 09:50:00,
2013-09-20 05:54:00,67.6,67.6,29.83,SSW,212,3.0,5.7,100,0.00,,,0.00,0.00,VWS V14.01,2013-09-20 09:54:00,
2013-09-20 05:55:00,67.9,67.9,29.82,SW,230,2.7,4.2,100,0.00,,,0.00,0.00,VWS V14.01,2013-09-20 09:55:00,
2013-09-20 05:56:00,67.5,67.5,29.83,SW,216,2.2,3.4,100,0.00,,,0.00,0.00,VWS V14.01,2013-09-20 09:56:00,
2013-09-20 05:59:00,68.1,68.1,29.83,SSW,210,3.4,3.7,100,0.00,,,0.00,0.43,VWS V14.01,2013-09-20 09:59:00,
2013-09-20 06:00:00,67.6,67.2,29.82,SSW,208,1.5,3.4,99,0.00,,,0.00,0.00,VWS V14.01,2013-09-20 10:00:00,
2013-09-20 06:01:00,67.8,67.8,29.82,SW,215,4.2,4.2,100,0.00,,,0.00,0.00,VWS V14.01,2013-09-20 10:01:00,
2013-09-20 06:04:00,67.7,67.7,29.83,SSW,199,1.0,1.0,100,0.00,,,0.00,0.00,VWS V14.01,2013-09-20 10:04:00,
2013-09-20 06:05:00,67.7,67.7,29.83,SSW,199,1.0,1.0,100,0.00,,,0.00,0.00,VWS V14.01,2013-09-20 10:05:00,
2013-09-20 06:07:00,67.8,67.8,29.82,SW,214,3.0,3.0,100,0.00,,,0.00,0.00,VWS V14.01,2013-09-20 10:07:00,
2013-09-20 06:09:00,68.1,68.1,29.81,SW,225,5.4,5.4,100,0.00,,,0.00,0.00,VWS V14.01,2013-09-20 10:09:00,
2013-09-20 06:10:00,67.8,67.8,29.82,SW,225,1.5,5.4,100,0.00,,,0.00,0.00,VWS V14.01,2013-09-20 10:10:00,
2013-09-20 06:11:00,68.4,68.4,29.82,SW,222,5.6,5.6,100,0.00,,,0.00,0.00,VWS V14.01,2013-09-20 10:11:00,
2013-09-20 06:13:00,67.9,67.9,29.82,SW,221,0.0,3.7,100,0.00,,,0.00,0.00,VWS V14.01,2013-09-20 10:13:00,
2013-09-20 06:14:00,68.0,68.0,29.82,SW,227,2.7,2.7,100,0.00,,,0.00,0.73,VWS V14.01,2013-09-20 10:14:00,
2013-09-20 06:15:00,68.2,68.2,29.82,SSW,211,3.9,4.0,100,0.00,,,0.00,0.00,VWS V14.01,2013-09-20 10:15:00,
2013-09-20 06:17:00,68.1,68.1,29.82,SSW,213,5.1,5.1,100,0.00,,,0.00,0.00,VWS V14.01,2013-09-20 10:17:00,
2013-09-20 06:18:00,68.1,68.1,29.82,SW,221,3.9,3.9,100,0.00,,,0.00,0.00,VWS V14.01,2013-09-20 10:18:00,
2013-09-20 06:21:00,68.0,67.5,29.81,SSW,210,2.8,3.5,98,0.00,,,0.00,0.00,VWS V14.01,2013-09-20 10:21:00,
2013-09-20 06:23:00,68.1,68.1,29.81,SW,222,3.0,4.4,100,0.00,,,0.00,0.00,VWS V14.01,2013-09-20 10:23:00,
2013-09-20 06:25:00,68.3,68.3,29.82,SW,219,2.3,4.9,100,0.00,,,0.00,0.00,VWS V14.01,2013-09-20 10:25:00,
2013-09-20 06:26:00,68.3,68.3,29.82,SW,214,3.4,4.5,100,0.00,,,0.00,0.00,VWS V14.01,2013-09-20 10:26:00,
2013-09-20 06:29:00,68.5,68.6,29.81,SW,214,4.9,4.9,100,0.00,,,0.00,0.00,VWS V14.01,2013-09-20 10:29:00,
2013-09-20 06:30:00,68.6,68.6,29.82,SW,233,6.1,6.1,100,0.00,,,0.00,0.00,VWS V14.01,2013-09-20 10:30:00,
2013-09-20 06:31:00,68.6,68.7,29.81,SW,217,4.0,4.0,100,0.00,,,0.00,0.00,VWS V14.01,2013-09-20 10:31:00,
2013-09-20 06:32:00,68.3,68.3,29.81,SSW,213,3.7,4.0,100,0.00,,,0.00,0.00,VWS V14.01,2013-09-20 10:32:00,
2013-09-20 06:35:00,68.7,68.7,29.82,SW,218,6.6,6.6,100,0.00,,,0.00,0.00,VWS V14.01,2013-09-20 10:35:00,
2013-09-20 06:36:00,68.2,68.3,29.82,SSW,206,4.5,5.4,100,0.00,,,0.00,0.43,VWS V14.01,2013-09-20 10:36:00,
2013-09-20 06:39:00,68.3,68.3,29.81,SSW,211,4.4,4.5,100,0.00,,,0.00,0.00,VWS V14.01,2013-09-20 10:39:00,
2013-09-20 06:41:00,68.3,68.3,29.81,SSW,193,3.4,3.4,100,0.00,,,0.00,0.00,VWS V14.01,2013-09-20 10:41:00,
2013-09-20 06:42:00,68.3,68.3,29.81,SSW,200,3.4,4.9,100,0.00,,,0.00,0.00,VWS V14.01,2013-09-20 10:42:00,
2013-09-20 06:45:00,68.6,68.6,29.81,SSW,211,4.4,8.0,100,0.00,,,0.00,0.43,VWS V14.01,2013-09-20 10:45:00,
2013-09-20 06:47:00,68.6,68.6,29.80,SSW,207,5.1,5.1,100,0.00,,,0.00,0.00,VWS V14.01,2013-09-20 10:47:00,
2013-09-20 06:48:00,68.6,68.7,29.80,SSW,212,6.4,6.4,100,0.00,,,0.00,0.00,VWS V14.01,2013-09-20 10:48:00,
2013-09-20 06:49:00,68.3,68.4,29.81,SW,222,4.7,6.4,100,0.00,,,0.00,0.00,VWS V14.01,2013-09-20 10:49:00,
2013-09-20 06:51:00,68.4,68.4,29.81,SSW,209,5.1,5.6,100,0.00,,,0.00,0.00,VWS V14.01,2013-09-20 10:51:00,
2013-09-20 06:53:00,68.4,68.4,29.81,SSW,212,4.2,5.1,100,0.00,,,0.00,0.00,VWS V14.01,2013-09-20 10:53:00,
2013-09-20 06:55:00,68.8,68.8,29.81,South,190,7.5,7.5,100,0.00,,,0.00,0.00,VWS V14.01,2013-09-20 10:55:00,
2013-09-20 06:56:00,68.4,68.4,29.81,SSW,212,5.2,5.2,100,0.00,,,0.00,0.00,VWS V14.01,2013-09-20 10:56:00,
2013-09-20 06:58:00,68.4,68.4,29.82,SW,228,4.4,6.1,100,0.00,,,0.00,0.00,VWS V14.01,2013-09-20 10:58:00,
2013-09-20 06:59:00,68.5,68.5,29.81,SW,216,5.9,6.1,100,0.00,,,0.00,0.06,VWS V14.01,2013-09-20 10:59:00,
2013-09-20 07:00:00,68.8,68.8,29.82,SSW,204,7.5,7.5,100,0.00,,,0.00,0.00,VWS V14.01,2013-09-20 11:00:00,
2013-09-20 07:01:00,68.6,68.6,29.81,SSW,211,4.7,5.6,100,0.00,,,0.00,0.00,VWS V14.01,2013-09-20 11:01:00,
2013-09-20 07:02:00,68.7,68.8,29.81,South,191,5.6,5.6,100,0.00,,,0.00,0.00,VWS V14.01,2013-09-20 11:02:00,
2013-09-20 07:04:00,68.4,68.4,29.81,SW,221,4.5,6.8,100,0.00,,,0.00,0.00,VWS V14.01,2013-09-20 11:04:00,
2013-09-20 07:05:00,68.5,68.5,29.81,SSW,208,6.1,6.8,100,0.00,,,0.00,0.00,VWS V14.01,2013-09-20 11:05:00,
2013-09-20 07:07:00,68.4,68.4,29.81,SSW,199,4.2,6.8,100,0.00,,,0.00,0.00,VWS V14.01,2013-09-20 11:07:00,
2013-09-20 07:09:00,69.0,69.0,29.80,SSW,198,6.4,8.5,100,0.00,,,0.00,0.00,VWS V14.01,2013-09-20 11:09:00,
2013-09-20 07:10:00,68.7,68.7,29.80,SSW,207,5.6,8.5,100,0.00,,,0.00,0.73,VWS V14.01,2013-09-20 11:10:00,
2013-09-20 07:11:00,68.4,68.4,29.81,SSW,211,5.7,8.5,100,0.00,,,0.00,0.00,VWS V14.01,2013-09-20 11:11:00,
2013-09-20 07:14:00,68.5,68.5,29.81,SW,223,4.7,8.5,100,0.00,,,0.00,0.00,VWS V14.01,2013-09-20 11:14:00,
2013-09-20 07:17:00,68.7,68.7,29.80,SSW,207,4.4,8.5,100,0.00,,,0.00,0.06,VWS V14.01,2013-09-20 11:17:00,
2013-09-20 07:19:00,68.8,68.8,29.81,SSW,206,6.3,8.5,100,0.00,,,0.00,1.04,VWS V14.01,2013-09-20 11:19:00,
2013-09-20 07:20:00,68.7,68.7,29.81,SW,225,5.7,9.0,100,0.00,,,0.00,1.77,VWS V14.01,2013-09-20 11:20:00,
2013-09-20 07:22:00,68.8,68.8,29.81,SW,220,6.4,9.0,100,0.00,,,0.00,2.32,VWS V14.01,2013-09-20 11:22:00,
2013-09-20 07:25:00,68.3,68.3,29.82,SSW,207,3.4,9.0,100,0.00,,,0.00,2.26,VWS V14.01,2013-09-20 11:25:00,
2013-09-20 07:30:00,68.8,68.8,29.81,SSW,207,4.7,9.0,100,0.00,,,0.00,7.88,VWS V14.01,2013-09-20 11:30:00,
2013-09-20 07:31:00,68.8,68.8,29.81,WSW,239,10.0,10.0,100,0.00,,,0.00,9.28,VWS V14.01,2013-09-20 11:31:00,
2013-09-20 07:35:00,69.0,69.0,29.80,SSW,199,6.3,10.0,100,0.00,,,0.00,14.71,VWS V14.01,2013-09-20 11:35:00,
2013-09-20 07:36:00,68.9,68.9,29.80,SSW,204,5.7,10.0,100,0.00,,,0.00,16.18,VWS V14.01,2013-09-20 11:36:00,
2013-09-20 07:37:00,68.9,68.9,29.80,SSW,200,3.7,10.0,100,0.00,,,0.00,16.61,VWS V14.01,2013-09-20 11:37:00,
2013-09-20 07:40:00,68.9,68.9,29.81,SSW,208,5.1,10.0,100,0.00,,,0.00,20.76,VWS V14.01,2013-09-20 11:40:00,
2013-09-20 07:41:00,68.8,68.8,29.81,SSW,205,2.5,10.0,100,0.00,,,0.00,23.32,VWS V14.01,2013-09-20 11:41:00,
2013-09-20 07:42:00,69.1,69.1,29.81,SSW,203,7.1,10.0,100,0.00,,,0.00,29.12,VWS V14.01,2013-09-20 11:42:00,
2013-09-20 07:44:00,69.0,69.0,29.82,SW,224,2.8,10.0,100,0.00,,,0.00,33.94,VWS V14.01,2013-09-20 11:44:00,
2013-09-20 07:46:00,69.3,69.3,29.81,SW,216,6.4,10.0,100,0.00,,,0.00,47.37,VWS V14.01,2013-09-20 11:46:00,
2013-09-20 07:49:00,69.4,69.4,29.81,SSW,210,7.1,10.0,100,0.00,,,0.00,65.51,VWS V14.01,2013-09-20 11:49:00,
2013-09-20 07:50:00,69.3,69.2,29.81,SSW,201,5.9,10.0,100,0.00,,,0.00,71.79,VWS V14.01,2013-09-20 11:50:00,
2013-09-20 07:51:00,69.7,69.5,29.81,SSW,202,6.9,10.0,99,0.00,,,0.00,80.10,VWS V14.01,2013-09-20 11:51:00,
2013-09-20 07:54:00,69.9,69.6,29.81,SW,216,7.5,10.0,99,0.00,,,0.00,92.61,VWS V14.01,2013-09-20 11:54:00,
2013-09-20 07:55:00,69.9,69.5,29.81,SSW,205,4.2,10.0,99,0.00,,,0.00,95.30,VWS V14.01,2013-09-20 11:55:00,
2013-09-20 07:56:00,70.0,69.6,29.81,SW,224,7.6,10.0,98,0.00,,,0.00,97.50,VWS V14.01,2013-09-20 11:56:00,
2013-09-20 07:57:00,70.0,69.5,29.81,SSW,200,9.0,10.0,98,0.00,,,0.00,97.50,VWS V14.01,2013-09-20 11:57:00,
2013-09-20 07:59:00,70.2,69.6,29.81,SSW,205,6.4,10.0,98,0.00,,,0.00,99.45,VWS V14.01,2013-09-20 11:59:00,
2013-09-20 08:00:00,70.2,68.2,29.81,SSW,207,7.8,10.0,94,0.00,,,0.00,98.17,VWS V14.01,2013-09-20 12:00:00,
2013-09-20 08:02:00,70.4,69.4,29.81,SSW,208,7.8,8.5,97,0.00,,,0.00,97.01,VWS V14.01,2013-09-20 12:02:00,
2013-09-20 08:03:00,70.4,69.4,29.81,SW,215,9.3,9.3,97,0.00,,,0.00,95.06,VWS V14.01,2013-09-20 12:03:00,
2013-09-20 08:05:00,70.6,69.4,29.81,SSW,213,5.2,7.6,96,0.00,,,0.00,88.22,VWS V14.01,2013-09-20 12:05:00,
2013-09-20 08:06:00,70.5,69.2,29.83,SSW,198,6.9,6.9,96,0.00,,,0.00,83.39,VWS V14.01,2013-09-20 12:06:00,
2013-09-20 08:07:00,70.6,69.2,29.82,SW,222,9.5,9.5,95,0.00,,,0.00,76.68,VWS V14.01,2013-09-20 12:07:00,
2013-09-20 08:09:00,70.4,69.0,29.81,SW,223,8.8,8.8,95,0.00,,,0.00,56.23,VWS V14.01,2013-09-20 12:09:00,
2013-09-20 08:10:00,70.2,68.8,29.81,SSW,213,7.1,9.5,95,0.00,,,0.00,44.26,VWS V14.01,2013-09-20 12:10:00,
2013-09-20 08:12:00,70.2,68.8,29.81,SW,217,7.5,9.2,96,0.00,,,0.00,38.89,VWS V14.01,2013-09-20 12:12:00,
2013-09-20 08:13:00,70.1,68.9,29.81,SW,214,8.1,8.1,96,0.00,,,0.00,36.94,VWS V14.01,2013-09-20 12:13:00,
2013-09-20 08:16:00,70.1,69.0,29.81,SW,235,5.4,6.6,96,0.00,,,0.00,34.00,VWS V14.01,2013-09-20 12:16:00,
2013-09-20 08:17:00,70.1,69.0,29.81,SSW,205,7.1,7.1,96,0.00,,,0.00,33.21,VWS V14.01,2013-09-20 12:17:00,
2013-09-20 08:18:00,70.1,69.0,29.81,WSW,237,6.8,6.8,96,0.00,,,0.00,32.36,VWS V14.01,2013-09-20 12:18:00,
2013-09-20 08:21:00,70.3,69.2,29.82,SSW,211,10.4,10.4,96,0.00,,,0.00,30.22,VWS V14.01,2013-09-20 12:21:00,
2013-09-20 08:22:00,70.2,69.1,29.82,SW,216,7.3,10.4,96,0.00,,,0.00,29.12,VWS V14.01,2013-09-20 12:22:00,
2013-09-20 08:23:00,70.3,69.2,29.82,SW,214,9.9,9.9,96,0.00,,,0.00,27.78,VWS V14.01,2013-09-20 12:23:00,
2013-09-20 08:25:00,70.3,69.1,29.81,SW,234,8.0,9.5,96,0.00,,,0.00,24.24,VWS V14.01,2013-09-20 12:25:00,
2013-09-20 08:28:00,70.3,69.1,29.82,SSW,203,7.8,7.8,96,0.00,,,0.00,22.41,VWS V14.01,2013-09-20 12:28:00,
2013-09-20 08:29:00,70.2,68.9,29.81,SW,233,5.9,8.5,96,0.00,,,0.00,21.18,VWS V14.01,2013-09-20 12:29:00,
2013-09-20 08:31:00,70.3,69.0,29.81,SW,227,8.0,9.2,96,0.00,,,0.00,21.73,VWS V14.01,2013-09-20 12:31:00,
2013-09-20 08:33:00,70.2,68.9,29.81,SW,220,5.9,11.9,96,0.00,,,0.00,24.24,VWS V14.01,2013-09-20 12:33:00,
2013-09-20 08:34:00,70.1,68.8,29.81,SW,224,5.2,5.9,96,0.00,,,0.00,25.89,VWS V14.01,2013-09-20 12:34:00,
2013-09-20 08:35:00,70.3,69.0,29.82,SW,236,7.1,7.1,96,0.00,,,0.00,26.62,VWS V14.01,2013-09-20 12:35:00,
2013-09-20 08:36:00,70.2,68.9,29.80,SW,226,7.1,7.1,96,0.00,,,0.00,29.73,VWS V14.01,2013-09-20 12:36:00,
2013-09-20 08:38:00,70.3,68.9,29.81,WSW,237,5.1,8.1,96,0.00,,,0.00,34.25,VWS V14.01,2013-09-20 12:38:00,
2013-09-20 08:39:00,70.3,68.9,29.81,WSW,237,5.1,8.1,96,0.00,,,0.00,34.25,VWS V14.01,2013-09-20 12:39:00,
2013-09-20 08:40:00,70.2,68.9,29.81,SSW,209,6.6,10.2,95,0.00,,,0.00,36.75,VWS V14.01,2013-09-20 12:40:00,
2013-09-20 08:42:00,70.3,68.9,29.82,SW,223,6.9,6.9,95,0.00,,,0.00,38.89,VWS V14.01,2013-09-20 12:42:00,
2013-09-20 08:43:00,70.2,68.8,29.81,WSW,242,6.4,6.4,95,0.00,,,0.00,41.33,VWS V14.01,2013-09-20 12:43:00,
2013-09-20 08:44:00,70.3,68.9,29.82,SW,226,8.0,8.1,95,0.00,,,0.00,47.37,VWS V14.01,2013-09-20 12:44:00,
2013-09-20 08:45:00,70.4,67.8,29.82,SW,221,5.7,8.8,92,0.00,,,0.00,49.82,VWS V14.01,2013-09-20 12:45:00,
2013-09-20 08:46:00,70.4,69.0,29.82,SW,216,7.8,7.8,95,0.00,,,0.00,53.24,VWS V14.01,2013-09-20 12:46:00,
2013-09-20 08:48:00,70.3,68.9,29.82,SW,234,6.6,7.3,95,0.00,,,0.00,63.31,VWS V14.01,2013-09-20 12:48:00,
2013-09-20 08:50:00,70.5,69.0,29.82,West,277,7.5,7.5,95,0.00,,,0.00,68.68,VWS V14.01,2013-09-20 12:50:00,
2013-09-20 08:51:00,70.5,69.1,29.82,SW,233,7.1,7.6,95,0.00,,,0.00,77.72,VWS V14.01,2013-09-20 12:51:00,
2013-09-20 08:53:00,70.6,68.4,29.82,SW,234,6.6,6.6,93,0.00,,,0.00,90.78,VWS V14.01,2013-09-20 12:53:00,
2013-09-20 08:54:00,70.6,69.1,29.82,WSW,248,6.6,7.8,95,0.00,,,0.00,97.01,VWS V14.01,2013-09-20 12:54:00,
2013-09-20 08:55:00,70.7,69.2,29.82,SW,235,6.6,7.8,95,0.00,,,0.00,98.47,VWS V14.01,2013-09-20 12:55:00,
2013-09-20 08:56:00,70.7,69.2,29.82,SW,235,7.6,7.6,95,0.00,,,0.00,95.18,VWS V14.01,2013-09-20 12:56:00,
2013-09-20 08:57:00,70.7,69.1,29.82,SW,234,7.1,7.6,95,0.00,,,0.00,90.17,VWS V14.01,2013-09-20 12:57:00,
2013-09-20 09:00:00,70.6,69.0,29.83,WSW,243,7.3,7.3,95,0.00,,,0.00,75.52,VWS V14.01,2013-09-20 13:00:00,
2013-09-20 09:01:00,70.6,69.0,29.82,SW,227,6.3,7.3,94,0.00,,,0.00,74.79,VWS V14.01,2013-09-20 13:01:00,
2013-09-20 09:02:00,70.6,68.9,29.82,WSW,243,5.6,6.8,94,0.00,,,0.00,73.26,VWS V14.01,2013-09-20 13:02:00,
2013-09-20 09:03:00,70.6,68.9,29.82,WSW,243,5.6,6.8,94,0.00,,,0.00,73.26,VWS V14.01,2013-09-20 13:03:00,
2013-09-20 09:04:00,70.7,68.9,29.82,WSW,244,6.8,8.0,94,0.00,,,0.00,74.30,VWS V14.01,2013-09-20 13:04:00,
2013-09-20 09:06:00,70.8,69.0,29.81,WSW,248,9.2,9.2,94,0.00,,,0.00,77.96,VWS V14.01,2013-09-20 13:06:00,
2013-09-20 09:07:00,70.8,69.0,29.82,WSW,250,7.8,7.8,94,0.00,,,0.00,82.11,VWS V14.01,2013-09-20 13:07:00,
2013-09-20 09:08:00,70.8,69.0,29.82,SW,230,7.1,8.3,94,0.00,,,0.00,84.31,VWS V14.01,2013-09-20 13:08:00,
2013-09-20 09:10:00,70.8,68.9,29.81,WSW,251,7.5,7.5,94,0.00,,,0.00,88.22,VWS V14.01,2013-09-20 13:10:00,
2013-09-20 09:12:00,71.1,69.0,29.82,SW,234,8.7,8.7,93,0.00,,,0.00,102.08,VWS V14.01,2013-09-20 13:12:00,
2013-09-20 09:13:00,71.0,68.8,29.82,WSW,239,7.6,8.7,93,0.00,,,0.00,106.96,VWS V14.01,2013-09-20 13:13:00,
2013-09-20 09:14:00,71.0,67.8,29.82,SW,227,6.6,8.7,90,0.00,,,0.00,108.73,VWS V14.01,2013-09-20 13:14:00,
2013-09-20 09:18:00,71.2,68.9,29.82,SSW,208,6.1,7.5,93,0.00,,,0.00,112.15,VWS V14.01,2013-09-20 13:18:00,
2013-09-20 09:19:00,71.1,69.0,29.82,SSW,207,3.7,6.1,93,0.00,,,0.00,111.84,VWS V14.01,2013-09-20 13:19:00,
2013-09-20 09:20:00,71.3,69.0,29.82,SW,230,5.9,7.5,92,0.00,,,0.00,112.15,VWS V14.01,2013-09-20 13:20:00,
2013-09-20 09:25:00,71.3,68.7,29.82,WSW,243,7.3,8.1,92,0.00,,,0.00,121.12,VWS V14.01,2013-09-20 13:25:00,
2013-09-20 09:26:00,71.4,68.7,29.82,SW,229,5.9,7.3,91,0.00,,,0.00,124.18,VWS V14.01,2013-09-20 13:26:00,
2013-09-20 09:30:00,71.4,68.6,29.82,SW,236,6.1,8.7,91,0.00,,,0.00,137.18,VWS V14.01,2013-09-20 13:30:00,
2013-09-20 09:31:00,71.6,68.9,29.82,SW,227,5.4,6.1,91,0.00,,,0.00,138.71,VWS V14.01,2013-09-20 13:31:00,
2013-09-20 09:32:00,71.7,68.9,29.83,SW,222,6.1,6.1,91,0.00,,,0.00,141.70,VWS V14.01,2013-09-20 13:32:00,
2013-09-20 09:33:00,71.5,68.7,29.82,WSW,242,6.6,6.6,91,0.00,,,0.00,144.51,VWS V14.01,2013-09-20 13:33:00,
2013-09-20 09:35:00,71.6,68.6,29.82,West,260,6.6,8.0,90,0.00,,,0.00,148.78,VWS V14.01,2013-09-20 13:35:00,
2013-09-20 09:36:00,71.9,69.2,29.82,SW,223,5.9,6.6,91,0.00,,,0.00,168.74,VWS V14.01,2013-09-20 13:36:00,
2013-09-20 09:37:00,72.0,69.0,29.83,SW,227,6.9,6.9,90,0.00,,,0.00,171.00,VWS V14.01,2013-09-20 13:37:00,
2013-09-20 09:38:00,72.0,69.0,29.83,WSW,254,4.9,7.8,90,0.00,,,0.00,195.18,VWS V14.01,2013-09-20 13:38:00,
2013-09-20 09:40:00,72.2,68.9,29.83,WSW,238,6.6,6.6,89,0.00,,,0.00,168.93,VWS V14.01,2013-09-20 13:40:00,
2013-09-20 09:42:00,71.9,68.6,29.83,West,268,5.6,5.6,89,0.00,,,0.00,173.57,VWS V14.01,2013-09-20 13:42:00,
2013-09-20 09:43:00,71.8,68.5,29.83,WSW,245,6.4,6.4,89,0.00,,,0.00,131.93,VWS V14.01,2013-09-20 13:43:00,
2013-09-20 09:45:00,71.8,68.4,29.83,SW,236,5.9,7.5,89,0.00,,,0.00,87.73,VWS V14.01,2013-09-20 13:45:00,
2013-09-20 09:46:00,71.9,68.6,29.83,SW,226,5.9,7.5,89,0.00,,,0.00,88.34,VWS V14.01,2013-09-20 13:46:00,
2013-09-20 09:47:00,71.9,68.5,29.85,SW,233,6.9,7.1,89,0.00,,,0.00,82.84,VWS V14.01,2013-09-20 13:47:00,
2013-09-20 09:49:00,71.8,68.2,29.84,SW,232,10.5,10.5,89,0.00,,,0.00,82.54,VWS V14.01,2013-09-20 13:49:00,
2013-09-20 09:51:00,71.8,68.4,29.82,SW,236,7.5,7.5,89,0.00,,,0.00,129.85,VWS V14.01,2013-09-20 13:51:00,
2013-09-20 09:52:00,71.8,68.3,29.82,WSW,256,7.6,7.6,89,0.00,,,0.00,127.05,VWS V14.01,2013-09-20 13:52:00,
2013-09-20 09:53:00,71.9,68.3,29.85,WSW,251,8.0,9.5,89,0.00,,,0.00,129.24,VWS V14.01,2013-09-20 13:53:00,
2013-09-20 09:55:00,71.9,68.4,29.83,WSW,250,6.6,6.6,89,0.00,,,0.00,137.55,VWS V14.01,2013-09-20 13:55:00,
2013-09-20 09:57:00,72.1,68.4,29.82,SW,228,7.5,8.0,88,0.00,,,0.00,155.98,VWS V14.01,2013-09-20 13:57:00,
2013-09-20 09:58:00,72.0,66.5,29.83,WSW,238,7.1,8.5,83,0.00,,,0.00,143.65,VWS V14.01,2013-09-20 13:58:00,
2013-09-20 10:00:00,72.2,68.1,29.83,WSW,252,7.6,7.6,87,0.00,,,0.00,158.00,VWS V14.01,2013-09-20 14:00:00,
2013-09-20 10:02:00,72.4,68.4,29.82,SW,228,6.9,6.9,87,0.00,,,0.00,164.84,VWS V14.01,2013-09-20 14:02:00,
2013-09-20 10:03:00,72.4,66.8,29.83,West,260,8.0,8.0,83,0.00,,,0.00,218.62,VWS V14.01,2013-09-20 14:03:00,
2013-09-20 10:04:00,72.7,68.3,29.82,SW,226,6.8,8.0,86,0.00,,,0.00,195.06,VWS V14.01,2013-09-20 14:04:00,
2013-09-20 10:07:00,72.5,67.1,29.83,West,260,6.8,11.6,83,0.00,,,0.00,134.13,VWS V14.01,2013-09-20 14:07:00,
2013-09-20 10:09:00,72.6,68.3,29.82,West,269,2.8,11.6,86,0.00,,,0.00,123.87,VWS V14.01,2013-09-20 14:09:00,
2013-09-20 10:11:00,72.6,67.7,29.82,WSW,237,6.3,11.6,85,0.00,,,0.00,102.56,VWS V14.01,2013-09-20 14:11:00,
2013-09-20 10:12:00,72.6,67.9,29.82,WSW,243,5.6,11.6,85,0.00,,,0.00,102.38,VWS V14.01,2013-09-20 14:12:00,
2013-09-20 10:16:00,72.8,68.0,29.83,SW,226,8.7,11.6,85,0.00,,,0.00,141.70,VWS V14.01,2013-09-20 14:16:00,
2013-09-20 10:17:00,72.8,67.9,29.83,SW,233,6.8,11.6,84,0.00,,,0.00,139.01,VWS V14.01,2013-09-20 14:17:00,
2013-09-20 10:18:00,72.8,67.7,29.82,WSW,246,6.6,11.6,84,0.00,,,0.00,129.24,VWS V14.01,2013-09-20 14:18:00,
2013-09-20 10:22:00,72.9,67.6,29.82,WSW,256,7.6,11.6,84,0.00,,,0.00,128.14,VWS V14.01,2013-09-20 14:22:00,
2013-09-20 10:23:00,72.9,67.3,29.82,WSW,250,9.0,11.6,83,0.00,,,0.00,128.75,VWS V14.01,2013-09-20 14:23:00,
2013-09-20 10:26:00,72.9,67.2,29.82,WSW,257,7.6,11.6,82,0.00,,,0.00,175.64,VWS V14.01,2013-09-20 14:26:00,
2013-09-20 10:27:00,73.1,67.1,29.83,WSW,257,11.4,11.6,81,0.00,,,0.00,160.68,VWS V14.01,2013-09-20 14:27:00,
2013-09-20 10:28:00,73.2,67.3,29.82,WSW,240,9.7,11.6,82,0.00,,,0.00,193.04,VWS V14.01,2013-09-20 14:28:00,
2013-09-20 10:32:00,73.3,67.1,29.83,WSW,254,6.8,13.3,81,0.00,,,0.00,187.85,VWS V14.01,2013-09-20 14:32:00,
2013-09-20 10:33:00,73.3,66.5,29.82,SW,233,9.5,13.3,79,0.00,,,0.00,212.27,VWS V14.01,2013-09-20 14:33:00,
2013-09-20 10:34:00,73.6,66.4,29.83,WSW,252,12.4,13.3,78,0.00,,,0.00,287.73,VWS V14.01,2013-09-20 14:34:00,
2013-09-20 10:36:00,73.7,67.5,29.82,WSW,240,5.6,13.3,81,0.00,,,0.00,178.08,VWS V14.01,2013-09-20 14:36:00,
2013-09-20 10:37:00,73.5,65.9,29.82,WSW,241,11.1,13.3,77,0.00,,,0.00,209.83,VWS V14.01,2013-09-20 14:37:00,
2013-09-20 10:39:00,73.7,65.9,29.82,SW,235,11.4,13.3,77,0.00,,,0.00,181.14,VWS V14.01,2013-09-20 14:39:00,
2013-09-20 10:40:00,73.7,65.6,29.82,SW,234,13.8,13.8,76,0.00,,,0.00,202.50,VWS V14.01,2013-09-20 14:40:00,
2013-09-20 10:41:00,73.6,65.5,29.82,West,268,12.9,13.8,76,0.00,,,0.00,371.00,VWS V14.01,2013-09-20 14:41:00,
2013-09-20 10:43:00,74.1,65.6,29.82,SW,235,14.3,14.3,75,0.00,,,0.00,293.10,VWS V14.01,2013-09-20 14:43:00,
2013-09-20 10:45:00,74.3,66.5,29.82,WSW,243,8.8,14.3,77,0.00,,,0.00,287.24,VWS V14.01,2013-09-20 14:45:00,
2013-09-20 10:46:00,74.0,65.2,29.82,West,265,9.9,14.3,74,0.00,,,0.00,261.11,VWS V14.01,2013-09-20 14:46:00,
2013-09-20 10:47:00,74.0,65.4,29.82,WSW,248,10.2,14.3,75,0.00,,,0.00,180.53,VWS V14.01,2013-09-20 14:47:00,
2013-09-20 10:50:00,73.9,65.3,29.82,WSW,243,11.9,14.3,74,0.00,,,0.00,239.87,VWS V14.01,2013-09-20 14:50:00,
2013-09-20 10:51:00,74.1,66.1,29.82,WSW,251,8.0,14.3,76,0.00,,,0.00,255.49,VWS V14.01,2013-09-20 14:51:00,
2013-09-20 10:52:00,74.4,65.4,29.82,WSW,252,6.4,14.3,74,0.00,,,0.00,309.59,VWS V14.01,2013-09-20 14:52:00,
2013-09-20 10:53:00,74.3,65.2,29.82,WSW,257,8.3,14.3,73,0.00,,,0.00,216.42,VWS V14.01,2013-09-20 14:53:00,
2013-09-20 10:55:00,73.9,64.5,29.81,West,265,8.7,14.3,72,0.00,,,0.00,219.29,VWS V14.01,2013-09-20 14:55:00,
2013-09-20 10:57:00,74.3,64.6,29.82,WSW,245,12.4,14.3,72,0.00,,,0.00,212.52,VWS V14.01,2013-09-20 14:57:00,
2013-09-20 10:58:00,73.9,64.4,29.81,WSW,243,7.8,14.3,72,0.00,,,0.00,233.33,VWS V14.01,2013-09-20 14:58:00,
2013-09-20 10:59:00,74.3,64.2,29.81,WSW,246,9.9,14.3,71,0.00,,,0.00,244.51,VWS V14.01,2013-09-20 14:59:00,
2013-09-20 11:00:00,74.7,64.9,29.81,WSW,242,7.5,14.3,72,0.00,,,0.00,481.87,VWS V14.01,2013-09-20 15:00:00,
2013-09-20 11:03:00,75.0,64.4,29.81,WSW,258,7.3,10.5,70,0.00,,,0.00,517.70,VWS V14.01,2013-09-20 15:03:00,
2013-09-20 11:04:00,75.1,64.2,29.81,SW,234,9.3,10.5,69,0.00,,,0.00,366.12,VWS V14.01,2013-09-20 15:04:00,
2013-09-20 11:05:00,75.2,64.7,29.81,WSW,251,6.9,10.5,70,0.00,,,0.00,349.02,VWS V14.01,2013-09-20 15:05:00,
2013-09-20 11:07:00,74.7,63.3,29.81,West,268,8.5,10.5,68,0.00,,,0.00,230.65,VWS V14.01,2013-09-20 15:07:00,
2013-09-20 11:09:00,74.9,63.5,29.81,SW,216,9.5,10.5,68,0.00,,,0.00,206.90,VWS V14.01,2013-09-20 15:09:00,
2013-09-20 11:11:00,74.6,63.2,29.81,WSW,238,9.5,10.9,68,0.00,,,0.00,245.54,VWS V14.01,2013-09-20 15:11:00,
2013-09-20 11:14:00,75.0,63.2,29.80,SW,230,8.8,10.9,67,0.00,,,0.00,231.20,VWS V14.01,2013-09-20 15:14:00,
2013-09-20 11:15:00,75.2,62.0,29.81,WSW,256,7.6,10.9,63,0.00,,,0.00,339.99,VWS V14.01,2013-09-20 15:15:00,
2013-09-20 11:17:00,75.4,62.3,29.80,WSW,242,10.0,10.9,64,0.00,,,0.00,371.00,VWS V14.01,2013-09-20 15:17:00,
2013-09-20 11:20:00,76.4,63.4,29.81,WSW,251,11.4,13.1,64,0.00,,,0.00,415.75,VWS V14.01,2013-09-20 15:20:00,
2013-09-20 11:21:00,75.7,60.6,29.80,SW,224,11.7,13.1,60,0.00,,,0.00,644.02,VWS V14.01,2013-09-20 15:21:00,
2013-09-20 11:24:00,75.4,60.7,29.80,SW,227,9.2,14.3,60,0.00,,,0.00,253.79,VWS V14.01,2013-09-20 15:24:00,
2013-09-20 11:25:00,75.7,61.2,29.80,SW,226,9.0,14.3,61,0.00,,,0.00,267.64,VWS V14.01,2013-09-20 15:25:00,
2013-09-20 11:26:00,76.0,61.2,29.79,WSW,253,10.2,14.3,60,0.00,,,0.00,499.94,VWS V14.01,2013-09-20 15:26:00,
2013-09-20 11:28:00,76.1,62.1,29.79,WSW,243,6.1,14.3,62,0.00,,,0.00,440.60,VWS V14.01,2013-09-20 15:28:00,
2013-09-20 11:30:00,75.5,59.4,29.80,WSW,251,12.1,14.3,57,0.00,,,0.00,295.30,VWS V14.01,2013-09-20 15:30:00,
2013-09-20 11:31:00,75.5,59.4,29.80,WSW,251,12.1,14.3,57,0.00,,,0.00,295.30,VWS V14.01,2013-09-20 15:31:00,
2013-09-20 11:35:00,75.9,60.0,29.79,WSW,252,12.1,14.3,58,0.00,,,0.00,495.54,VWS V14.01,2013-09-20 15:35:00,
2013-09-20 11:37:00,76.6,59.6,29.79,SW,224,14.0,14.3,56,0.00,,,0.00,459.16,VWS V14.01,2013-09-20 15:37:00,
2013-09-20 11:39:00,76.9,60.8,29.80,SW,226,9.9,14.3,58,0.00,,,0.00,305.37,VWS V14.01,2013-09-20 15:39:00,
2013-09-20 11:41:00,77.0,60.7,29.80,WSW,250,11.4,14.3,57,0.00,,,0.00,593.22,VWS V14.01,2013-09-20 15:41:00,
2013-09-20 11:42:00,77.9,60.8,29.79,SW,231,10.7,14.3,56,0.00,,,0.00,635.23,VWS V14.01,2013-09-20 15:42:00,
2013-09-20 11:43:00,76.7,58.9,29.80,WSW,250,13.3,14.3,54,0.00,,,0.00,711.05,VWS V14.01,2013-09-20 15:43:00,
2013-09-20 11:46:00,77.5,58.3,29.80,SW,215,12.3,14.3,52,0.00,,,0.00,518.38,VWS V14.01,2013-09-20 15:46:00,
2013-09-20 11:47:00,77.3,58.6,29.79,WSW,242,12.8,14.3,53,0.00,,,0.00,690.90,VWS V14.01,2013-09-20 15:47:00,
2013-09-20 11:48:00,77.1,58.5,29.79,WSW,237,12.6,14.3,53,0.00,,,0.00,302.32,VWS V14.01,2013-09-20 15:48:00,
2013-09-20 11:50:00,76.5,58.7,29.79,West,264,10.9,14.3,54,0.00,,,0.00,343.41,VWS V14.01,2013-09-20 15:50:00,
2013-09-20 11:52:00,76.2,58.9,29.79,WSW,256,10.0,14.3,55,0.00,,,0.00,357.81,VWS V14.01,2013-09-20 15:52:00,
2013-09-20 11:53:00,76.1,59.1,29.79,West,262,9.9,14.3,56,0.00,,,0.00,375.89,VWS V14.01,2013-09-20 15:53:00,
2013-09-20 11:54:00,76.4,59.8,29.78,WSW,254,9.5,14.3,56,0.00,,,0.00,391.03,VWS V14.01,2013-09-20 15:54:00,
2013-09-20 11:55:00,77.1,60.4,29.78,WSW,243,8.7,14.3,56,0.00,,,0.00,474.48,VWS V14.01,2013-09-20 15:55:00,
2013-09-20 11:58:00,77.6,58.7,29.79,SW,226,12.6,14.3,52,0.00,,,0.00,502.87,VWS V14.01,2013-09-20 15:58:00,
2013-09-20 11:59:00,77.6,58.1,29.79,WSW,244,14.0,14.3,51,0.00,,,0.00,578.75,VWS V14.01,2013-09-20 15:59:00,
2013-09-20 12:00:00,76.9,56.3,29.79,WSW,248,12.3,14.3,49,0.00,,,0.00,474.05,VWS V14.01,2013-09-20 16:00:00,
2013-09-20 12:01:00,77.4,60.0,29.79,WSW,246,8.3,14.3,55,0.00,,,0.00,415.45,VWS V14.01,2013-09-20 16:01:00,
2013-09-20 12:04:00,76.7,57.4,29.79,WSW,240,12.9,12.9,51,0.00,,,0.00,417.40,VWS V14.01,2013-09-20 16:04:00,
2013-09-20 12:05:00,76.7,56.4,29.79,WSW,255,14.3,14.3,49,0.00,,,0.00,383.21,VWS V14.01,2013-09-20 16:05:00,
2013-09-20 12:06:00,76.8,57.5,29.79,SW,223,15.0,15.0,51,0.00,,,0.00,345.36,VWS V14.01,2013-09-20 16:06:00,
2013-09-20 12:10:00,77.2,57.1,29.78,WSW,237,12.1,12.1,50,0.00,,,0.00,541.70,VWS V14.01,2013-09-20 16:10:00,
2013-09-20 12:11:00,77.2,58.2,29.78,West,266,12.9,12.9,52,0.00,,,0.00,641.82,VWS V14.01,2013-09-20 16:11:00,
2013-09-20 12:13:00,77.2,58.2,29.78,WSW,257,11.9,12.8,52,0.00,,,0.00,719.72,VWS V14.01,2013-09-20 16:13:00,
2013-09-20 12:15:00,77.9,58.0,29.78,West,267,8.0,10.5,50,0.00,,,0.00,595.67,VWS V14.01,2013-09-20 16:15:00,
2013-09-20 12:16:00,78.2,59.5,29.78,West,273,9.5,9.5,53,0.00,,,0.00,703.42,VWS V14.01,2013-09-20 16:16:00,
2013-09-20 12:18:00,76.9,56.0,29.80,WSW,253,14.3,14.3,48,0.00,,,0.00,607.39,VWS V14.01,2013-09-20 16:18:00,
2013-09-20 12:20:00,77.8,57.6,29.78,West,261,11.6,11.6,50,0.00,,,0.00,629.85,VWS V14.01,2013-09-20 16:20:00,
2013-09-20 12:22:00,78.5,57.2,29.78,WSW,239,14.1,14.1,48,0.00,,,0.00,654.27,VWS V14.01,2013-09-20 16:22:00,
2013-09-20 12:23:00,77.1,55.1,29.78,WNW,291,11.2,11.7,47,0.00,,,0.00,291.82,VWS V14.01,2013-09-20 16:23:00,
2013-09-20 12:24:00,77.5,57.0,29.78,West,270,12.3,12.3,49,0.00,,,0.00,364.35,VWS V14.01,2013-09-20 16:24:00,
2013-09-20 12:28:00,77.0,56.9,29.78,WSW,257,9.5,10.5,50,0.00,,,0.00,309.95,VWS V14.01,2013-09-20 16:28:00,
2013-09-20 12:29:00,77.3,57.8,29.78,West,259,13.1,13.1,51,0.00,,,0.00,293.53,VWS V14.01,2013-09-20 16:29:00,
2013-09-20 12:34:00,77.9,57.4,29.79,West,265,10.4,14.8,49,0.00,,,0.00,349.02,VWS V14.01,2013-09-20 16:34:00,
2013-09-20 12:35:00,77.9,57.4,29.79,West,265,10.4,14.8,49,0.00,,,0.00,349.02,VWS V14.01,2013-09-20 16:35:00,
2013-09-20 12:36:00,78.4,59.3,29.78,WSW,249,6.1,8.3,52,0.00,,,0.00,373.69,VWS V14.01,2013-09-20 16:36:00,
2013-09-20 12:40:00,78.1,57.3,29.79,SW,231,8.3,12.8,49,0.00,,,0.00,402.01,VWS V14.01,2013-09-20 16:40:00,
2013-09-20 12:41:00,77.5,56.5,29.79,WSW,248,10.2,10.5,48,0.00,,,0.00,463.80,VWS V14.01,2013-09-20 16:41:00,
2013-09-20 12:43:00,79.4,57.2,29.78,SW,222,10.4,10.4,47,0.00,,,0.00,703.11,VWS V14.01,2013-09-20 16:43:00,
2013-09-20 12:45:00,77.9,55.5,29.78,WSW,239,9.0,14.3,46,0.00,,,0.00,402.75,VWS V14.01,2013-09-20 16:45:00,
2013-09-20 12:46:00,78.0,55.8,29.78,SW,234,9.9,9.9,46,0.00,,,0.00,388.58,VWS V14.01,2013-09-20 16:46:00,
2013-09-20 12:47:00,77.9,57.3,29.78,WSW,241,10.2,10.2,49,0.00,,,0.00,624.97,VWS V14.01,2013-09-20 16:47:00,
2013-09-20 12:51:00,77.2,55.4,29.78,WSW,239,13.1,13.1,47,0.00,,,0.00,418.38,VWS V14.01,2013-09-20 16:51:00,
2013-09-20 12:52:00,77.7,56.6,29.79,WSW,237,14.1,14.1,48,0.00,,,0.00,407.94,VWS V14.01,2013-09-20 16:52:00,
2013-09-20 12:53:00,77.4,55.9,29.79,WSW,239,11.7,14.1,47,0.00,,,0.00,342.43,VWS V14.01,2013-09-20 16:53:00,
2013-09-20 12:56:00,77.2,58.2,29.78,SW,225,9.3,13.3,52,0.00,,,0.00,330.40,VWS V14.01,2013-09-20 16:56:00,
2013-09-20 12:58:00,76.5,57.2,29.79,WSW,238,7.5,12.8,51,0.00,,,0.00,244.02,VWS V14.01,2013-09-20 16:58:00,
2013-09-20 12:59:00,76.9,55.8,29.79,WSW,243,11.7,11.7,48,0.00,,,0.00,241.51,VWS V14.01,2013-09-20 16:59:00,
2013-09-20 13:03:00,76.5,56.5,29.79,West,265,11.1,11.1,50,0.00,,,0.00,207.81,VWS V14.01,2013-09-20 17:03:00,
2013-09-20 13:04:00,76.3,55.3,29.78,West,264,15.3,15.3,48,0.00,,,0.00,212.76,VWS V14.01,2013-09-20 17:04:00,
2013-09-20 13:05:00,76.5,55.2,29.78,WSW,240,13.5,15.3,48,0.00,,,0.00,205.86,VWS V14.01,2013-09-20 17:05:00,
2013-09-20 13:06:00,76.2,57.7,29.78,West,273,6.4,10.5,53,0.00,,,0.00,203.48,VWS V14.01,2013-09-20 17:06:00,
2013-09-20 13:08:00,76.4,56.1,29.79,WSW,251,10.2,12.1,49,0.00,,,0.00,185.53,VWS V14.01,2013-09-20 17:08:00,
2013-09-20 13:09:00,76.5,57.3,29.79,West,268,12.3,12.3,51,0.00,,,0.00,203.72,VWS V14.01,2013-09-20 17:09:00,
2013-09-20 13:10:00,76.7,56.9,29.79,WSW,243,10.9,12.3,50,0.00,,,0.00,226.92,VWS V14.01,2013-09-20 17:10:00,
2013-09-20 13:11:00,76.3,54.1,29.79,West,260,10.2,10.9,46,0.00,,,0.00,295.30,VWS V14.01,2013-09-20 17:11:00,
2013-09-20 13:15:00,77.1,58.8,29.79,West,276,10.9,12.1,53,0.00,,,0.00,323.08,VWS V14.01,2013-09-20 17:15:00,
2013-09-20 13:16:00,76.6,58.1,29.79,West,275,12.4,14.3,53,0.00,,,0.00,319.72,VWS V14.01,2013-09-20 17:16:00,
2013-09-20 13:18:00,76.6,58.9,29.78,West,274,9.2,11.6,54,0.00,,,0.00,287.24,VWS V14.01,2013-09-20 17:18:00,
2013-09-20 13:20:00,76.5,60.1,29.78,West,269,7.5,11.4,57,0.00,,,0.00,292.86,VWS V14.01,2013-09-20 17:20:00,
2013-09-20 13:21:00,76.6,59.0,29.78,West,276,11.1,11.1,55,0.00,,,0.00,372.10,VWS V14.01,2013-09-20 17:21:00,
2013-09-20 13:22:00,76.6,59.1,29.78,WSW,252,8.0,12.1,55,0.00,,,0.00,306.65,VWS V14.01,2013-09-20 17:22:00,
2013-09-20 13:23:00,76.7,59.7,29.78,WNW,287,9.0,9.0,56,0.00,,,0.00,329.49,VWS V14.01,2013-09-20 17:23:00,
2013-09-20 13:25:00,76.8,59.1,29.78,WNW,288,9.7,9.7,54,0.00,,,0.00,342.19,VWS V14.01,2013-09-20 17:25:00,
2013-09-20 13:26:00,76.9,59.5,29.78,West,263,9.5,9.5,55,0.00,,,0.00,372.71,VWS V14.01,2013-09-20 17:26:00,
2013-09-20 13:28:00,76.7,57.2,29.78,West,265,12.4,12.4,51,0.00,,,0.00,349.27,VWS V14.01,2013-09-20 17:28:00,
2013-09-20 13:29:00,76.7,58.2,29.78,West,274,9.9,12.3,53,0.00,,,0.00,468.44,VWS V14.01,2013-09-20 17:29:00,
2013-09-20 13:30:00,77.2,57.7,29.78,WNW,283,13.1,13.1,51,0.00,,,0.00,384.68,VWS V14.01,2013-09-20 17:30:00,
2013-09-20 13:31:00,76.6,56.1,29.78,West,273,12.4,13.1,49,0.00,,,0.00,288.83,VWS V14.01,2013-09-20 17:31:00,
2013-09-20 13:32:00,76.6,57.7,29.78,West,268,11.2,12.4,52,0.00,,,0.00,273.57,VWS V14.01,2013-09-20 17:32:00,
2013-09-20 13:33:00,76.4,57.5,29.78,WSW,252,10.4,11.4,52,0.00,,,0.00,250.37,VWS V14.01,2013-09-20 17:33:00,
2013-09-20 13:35:00,76.7,58.3,29.78,SW,226,8.0,8.0,53,0.00,,,0.00,251.65,VWS V14.01,2013-09-20 17:35:00,
2013-09-20 13:36:00,76.8,56.3,29.78,WSW,245,12.8,12.8,49,0.00,,,0.00,319.11,VWS V14.01,2013-09-20 17:36:00,
2013-09-20 13:39:00,76.4,56.0,29.78,WNW,303,9.9,10.4,49,0.00,,,0.00,227.23,VWS V14.01,2013-09-20 17:39:00,
2013-09-20 13:41:00,76.3,56.3,29.78,West,271,12.3,12.3,50,0.00,,,0.00,215.20,VWS V14.01,2013-09-20 17:41:00,
2013-09-20 13:43:00,76.1,56.2,29.78,West,265,6.6,10.2,50,0.00,,,0.00,298.72,VWS V14.01,2013-09-20 17:43:00,
2013-09-20 13:45:00,76.1,57.3,29.77,West,264,7.3,10.0,52,0.00,,,0.00,349.51,VWS V14.01,2013-09-20 17:45:00,
2013-09-20 13:46:00,76.7,56.4,29.77,WSW,257,8.7,8.7,49,0.00,,,0.00,343.22,VWS V14.01,2013-09-20 17:46:00,
2013-09-20 13:49:00,77.6,57.6,29.77,SW,234,8.3,8.7,50,0.00,,,0.00,441.58,VWS V14.01,2013-09-20 17:49:00,
2013-09-20 13:50:00,77.2,55.6,29.78,WNW,282,10.2,10.2,47,0.00,,,0.00,368.56,VWS V14.01,2013-09-20 17:50:00,
2013-09-20 13:51:00,77.1,54.8,29.77,WSW,242,11.6,11.6,46,0.00,,,0.00,371.25,VWS V14.01,2013-09-20 17:51:00,
2013-09-20 13:52:00,77.2,56.9,29.77,West,271,7.6,11.6,50,0.00,,,0.00,372.47,VWS V14.01,2013-09-20 17:52:00,
2013-09-20 13:54:00,78.0,55.7,29.77,WSW,253,11.7,11.7,46,0.00,,,0.00,726.56,VWS V14.01,2013-09-20 17:54:00,
2013-09-20 13:56:00,77.3,54.4,29.77,WSW,250,9.9,9.9,45,0.00,,,0.00,387.91,VWS V14.01,2013-09-20 17:56:00,
2013-09-20 13:57:00,77.2,54.2,29.77,WSW,238,9.7,9.9,45,0.00,,,0.00,374.18,VWS V14.01,2013-09-20 17:57:00,
2013-09-20 13:58:00,76.9,51.8,29.77,West,266,13.3,13.3,42,0.00,,,0.00,383.21,VWS V14.01,2013-09-20 17:58:00,
2013-09-20 13:59:00,76.9,53.7,29.77,West,259,12.3,12.3,44,0.00,,,0.00,375.58,VWS V14.01,2013-09-20 17:59:00,
2013-09-20 14:02:00,76.8,52.5,29.77,WSW,238,14.0,14.0,43,0.00,,,0.00,289.26,VWS V14.01,2013-09-20 18:02:00,
2013-09-20 14:03:00,76.8,51.9,29.79,WSW,249,13.5,14.0,42,0.00,,,0.00,273.02,VWS V14.01,2013-09-20 18:03:00,
2013-09-20 14:04:00,76.5,50.9,29.78,West,260,15.7,15.7,41,0.00,,,0.00,264.65,VWS V14.01,2013-09-20 18:04:00,
2013-09-20 14:05:00,76.4,53.1,29.77,WSW,258,10.7,15.7,44,0.00,,,0.00,251.83,VWS V14.01,2013-09-20 18:05:00,
2013-09-20 14:08:00,76.8,53.2,29.78,WNW,292,10.5,15.7,44,0.00,,,0.00,218.62,VWS V14.01,2013-09-20 18:08:00,
2013-09-20 14:09:00,76.3,53.0,29.78,West,275,9.2,15.7,44,0.00,,,0.00,217.16,VWS V14.01,2013-09-20 18:09:00,
2013-09-20 14:10:00,75.5,53.2,29.78,WSW,238,10.2,15.7,46,0.00,,,0.00,216.91,VWS V14.01,2013-09-20 18:10:00,
2013-09-20 14:13:00,75.7,53.3,29.77,West,266,10.2,15.7,46,0.00,,,0.00,197.13,VWS V14.01,2013-09-20 18:13:00,
2013-09-20 14:14:00,75.9,53.6,29.77,West,264,9.9,15.7,46,0.00,,,0.00,209.83,VWS V14.01,2013-09-20 18:14:00,
2013-09-20 14:16:00,76.2,52.5,29.77,West,274,13.5,15.7,44,0.00,,,0.00,246.15,VWS V14.01,2013-09-20 18:16:00,
2013-09-20 14:17:00,75.9,54.0,29.77,West,267,8.3,15.7,47,0.00,,,0.00,224.48,VWS V14.01,2013-09-20 18:17:00,
2013-09-20 14:18:00,75.9,54.5,29.77,WNW,285,8.3,15.7,47,0.00,,,0.00,202.26,VWS V14.01,2013-09-20 18:18:00,
2013-09-20 14:19:00,75.6,54.8,29.77,WNW,293,8.8,15.7,49,0.00,,,0.00,197.01,VWS V14.01,2013-09-20 18:19:00,
2013-09-20 14:22:00,75.9,53.6,29.77,WNW,285,10.2,10.2,46,0.00,,,0.00,142.06,VWS V14.01,2013-09-20 18:22:00,
2013-09-20 14:24:00,75.6,53.5,29.77,West,271,12.8,15.7,46,0.00,,,0.00,100.73,VWS V14.01,2013-09-20 18:24:00,
2013-09-20 14:25:00,75.7,52.7,29.77,West,270,16.0,16.0,45,0.00,,,0.00,96.52,VWS V14.01,2013-09-20 18:25:00,
2013-09-20 14:26:00,75.5,54.0,29.77,WNW,291,10.0,16.0,47,0.00,,,0.00,81.01,VWS V14.01,2013-09-20 18:26:00,
2013-09-20 14:29:00,75.0,53.6,29.76,WNW,282,8.7,16.0,47,0.00,,,0.00,100.06,VWS V14.01,2013-09-20 18:29:00,
2013-09-20 14:30:00,75.3,53.1,29.76,NW,310,10.4,16.0,46,0.00,,,0.00,124.36,VWS V14.01,2013-09-20 18:30:00,
2013-09-20 14:31:00,74.8,53.0,29.77,West,276,8.7,16.0,46,0.00,,,0.00,121.37,VWS V14.01,2013-09-20 18:31:00,
2013-09-20 14:32:00,74.4,53.0,29.77,West,265,8.3,16.0,47,0.00,,,0.00,112.39,VWS V14.01,2013-09-20 18:32:00,
2013-09-20 14:35:00,74.7,53.6,29.77,West,261,8.7,16.0,48,0.00,,,0.00,100.92,VWS V14.01,2013-09-20 18:35:00,
2013-09-20 14:36:00,75.1,53.9,29.76,WSW,239,8.8,16.0,48,0.00,,,0.00,115.26,VWS V14.01,2013-09-20 18:36:00,
2013-09-20 14:37:00,75.0,53.6,29.76,West,270,11.4,16.0,47,0.00,,,0.00,121.92,VWS V14.01,2013-09-20 18:37:00,
2013-09-20 14:38:00,74.6,54.3,29.76,West,266,9.2,16.0,49,0.00,,,0.00,130.34,VWS V14.01,2013-09-20 18:38:00,
2013-09-20 14:39:00,74.8,54.8,29.77,WSW,245,7.5,16.0,50,0.00,,,0.00,135.29,VWS V14.01,2013-09-20 18:39:00,
2013-09-20 14:40:00,74.8,54.9,29.76,WNW,291,11.7,16.0,50,0.00,,,0.00,144.51,VWS V14.01,2013-09-20 18:40:00,
2013-09-20 14:41:00,74.3,54.8,29.77,WNW,295,9.2,16.0,51,0.00,,,0.00,151.22,VWS V14.01,2013-09-20 18:41:00,
2013-09-20 14:42:00,75.2,52.3,29.77,West,259,9.9,16.0,45,0.00,,,0.00,148.47,VWS V14.01,2013-09-20 18:42:00,
2013-09-20 14:43:00,74.9,55.3,29.77,WNW,282,9.3,16.0,51,0.00,,,0.00,130.28,VWS V14.01,2013-09-20 18:43:00,
2013-09-20 14:45:00,74.7,52.9,29.76,West,270,9.2,16.0,47,0.00,,,0.00,119.47,VWS V14.01,2013-09-20 18:45:00,
2013-09-20 14:46:00,74.3,55.5,29.77,West,263,6.6,16.0,52,0.00,,,0.00,106.96,VWS V14.01,2013-09-20 18:46:00,
2013-09-20 14:48:00,74.1,54.1,29.77,NW,304,13.1,16.0,50,0.00,,,0.00,87.73,VWS V14.01,2013-09-20 18:48:00,
2013-09-20 14:49:00,73.6,55.2,29.77,West,279,8.8,16.0,53,0.00,,,0.00,86.08,VWS V14.01,2013-09-20 18:49:00,
2013-09-20 14:50:00,73.7,55.5,29.76,West,267,9.9,16.0,53,0.00,,,0.00,80.65,VWS V14.01,2013-09-20 18:50:00,
2013-09-20 14:51:00,73.6,55.7,29.76,West,272,11.1,16.0,54,0.00,,,0.00,78.21,VWS V14.01,2013-09-20 18:51:00,
2013-09-20 14:52:00,72.8,55.5,29.77,WNW,288,9.7,16.0,55,0.00,,,0.00,80.65,VWS V14.01,2013-09-20 18:52:00,
2013-09-20 14:54:00,73.1,55.8,29.76,NW,320,10.0,16.0,54,0.00,,,0.00,87.12,VWS V14.01,2013-09-20 18:54:00,
2013-09-20 14:56:00,72.9,56.0,29.76,WNW,293,10.2,16.0,55,0.00,,,0.00,118.74,VWS V14.01,2013-09-20 18:56:00,
2013-09-20 14:58:00,72.5,56.0,29.76,West,275,8.5,16.0,56,0.00,,,0.00,136.69,VWS V14.01,2013-09-20 18:58:00,
2013-09-20 14:59:00,73.1,55.9,29.76,West,275,11.7,16.0,55,0.00,,,0.00,139.01,VWS V14.01,2013-09-20 18:59:00,
2013-09-20 15:03:00,72.6,56.8,29.76,West,270,10.2,10.2,58,0.00,,,0.00,141.21,VWS V14.01,2013-09-20 19:03:00,
2013-09-20 15:04:00,72.8,57.3,29.76,West,275,7.8,9.3,58,0.00,,,0.00,141.15,VWS V14.01,2013-09-20 19:04:00,
2013-09-20 15:08:00,72.6,56.5,29.76,West,279,8.7,8.7,57,0.00,,,0.00,108.67,VWS V14.01,2013-09-20 19:08:00,
2013-09-20 15:09:00,72.5,57.6,29.77,West,274,5.9,8.7,60,0.00,,,0.00,102.08,VWS V14.01,2013-09-20 19:09:00,
2013-09-20 15:10:00,72.5,57.6,29.77,West,274,5.9,8.7,60,0.00,,,0.00,102.08,VWS V14.01,2013-09-20 19:10:00,
2013-09-20 15:11:00,72.4,57.4,29.75,West,276,5.4,9.0,59,0.00,,,0.00,109.71,VWS V14.01,2013-09-20 19:11:00,
2013-09-20 15:13:00,72.8,57.5,29.77,WNW,282,6.9,7.6,59,0.00,,,0.00,122.77,VWS V14.01,2013-09-20 19:13:00,
2013-09-20 15:15:00,72.6,57.2,29.77,WNW,288,9.2,9.2,59,0.00,,,0.00,129.85,VWS V14.01,2013-09-20 19:15:00,
2013-09-20 15:16:00,72.7,58.1,29.76,West,280,6.1,8.7,60,0.00,,,0.00,141.21,VWS V14.01,2013-09-20 19:16:00,
2013-09-20 15:17:00,72.7,57.5,29.76,West,268,9.0,9.0,59,0.00,,,0.00,141.45,VWS V14.01,2013-09-20 19:17:00,
2013-09-20 15:19:00,72.6,57.6,29.76,WNW,285,6.1,7.5,59,0.00,,,0.00,129.00,VWS V14.01,2013-09-20 19:19:00,
2013-09-20 15:20:00,72.6,57.6,29.76,WNW,285,6.1,7.5,59,0.00,,,0.00,129.00,VWS V14.01,2013-09-20 19:20:00,
2013-09-20 15:21:00,72.7,58.0,29.76,West,263,6.9,6.9,60,0.00,,,0.00,111.90,VWS V14.01,2013-09-20 19:21:00,
2013-09-20 15:23:00,72.3,58.0,29.76,West,267,6.1,7.6,61,0.00,,,0.00,92.55,VWS V14.01,2013-09-20 19:23:00,
2013-09-20 15:24:00,72.3,58.5,29.76,West,269,6.3,7.1,62,0.00,,,0.00,90.42,VWS V14.01,2013-09-20 19:24:00,
2013-09-20 15:26:00,72.7,57.4,29.76,West,263,8.1,8.1,59,0.00,,,0.00,88.22,VWS V14.01,2013-09-20 19:26:00,
2013-09-20 15:27:00,72.7,57.4,29.76,West,263,8.1,8.1,59,0.00,,,0.00,88.22,VWS V14.01,2013-09-20 19:27:00,
2013-09-20 15:28:00,72.4,58.2,29.76,WSW,237,5.6,5.6,61,0.00,,,0.00,83.33,VWS V14.01,2013-09-20 19:28:00,
2013-09-20 15:30:00,72.6,57.4,29.76,West,263,9.2,10.2,59,0.00,,,0.00,69.11,VWS V14.01,2013-09-20 19:30:00,
2013-09-20 15:31:00,72.4,57.3,29.76,West,264,7.3,9.2,59,0.00,,,0.00,67.70,VWS V14.01,2013-09-20 19:31:00,
2013-09-20 15:32:00,72.5,57.5,29.76,WSW,256,7.3,9.2,59,0.00,,,0.00,63.31,VWS V14.01,2013-09-20 19:32:00,
2013-09-20 15:34:00,72.3,58.1,29.76,WSW,257,4.7,5.7,61,0.00,,,0.00,67.89,VWS V14.01,2013-09-20 19:34:00,
2013-09-20 15:36:00,72.2,57.0,29.78,SW,234,6.9,8.0,59,0.00,,,0.00,73.08,VWS V14.01,2013-09-20 19:36:00,
2013-09-20 15:37:00,72.3,57.8,29.76,WSW,239,6.3,6.4,60,0.00,,,0.00,68.19,VWS V14.01,2013-09-20 19:37:00,
2013-09-20 15:39:00,72.1,57.2,29.77,WSW,243,6.3,6.3,60,0.00,,,0.00,63.92,VWS V14.01,2013-09-20 19:39:00,
2013-09-20 15:40:00,72.3,57.5,29.76,WSW,253,5.6,9.3,60,0.00,,,0.00,65.75,VWS V14.01,2013-09-20 19:40:00,
2013-09-20 15:41:00,72.1,54.1,29.76,WSW,255,6.9,7.1,53,0.00,,,0.00,66.48,VWS V14.01,2013-09-20 19:41:00,
2013-09-20 15:42:00,72.3,57.4,29.76,SW,230,8.1,8.1,59,0.00,,,0.00,67.95,VWS V14.01,2013-09-20 19:42:00,
2013-09-20 15:44:00,72.4,58.0,29.76,SW,236,6.3,6.3,61,0.00,,,0.00,68.68,VWS V14.01,2013-09-20 19:44:00,
2013-09-20 15:47:00,72.3,57.9,29.77,WSW,244,4.5,4.7,61,0.00,,,0.00,70.63,VWS V14.01,2013-09-20 19:47:00,
2013-09-20 15:48:00,72.3,58.2,29.76,SW,235,5.4,5.4,61,0.00,,,0.00,72.34,VWS V14.01,2013-09-20 19:48:00,
2013-09-20 15:50:00,72.2,58.4,29.76,WSW,245,3.9,4.9,62,0.00,,,0.00,76.25,VWS V14.01,2013-09-20 19:50:00,
2013-09-20 15:52:00,71.7,59.4,29.76,SSW,213,5.1,5.7,65,0.00,,,0.00,77.96,VWS V14.01,2013-09-20 19:52:00,
2013-09-20 15:53:00,71.7,59.4,29.76,SSW,213,5.1,5.7,65,0.00,,,0.00,77.96,VWS V14.01,2013-09-20 19:53:00,
2013-09-20 15:54:00,71.6,60.5,29.76,SW,229,6.4,6.4,68,0.00,,,0.00,76.25,VWS V14.01,2013-09-20 19:54:00,
2013-09-20 15:55:00,71.3,60.7,29.75,SSW,203,5.7,6.4,69,0.00,,,0.00,76.01,VWS V14.01,2013-09-20 19:55:00,
2013-09-20 15:58:00,71.1,61.8,29.76,SW,219,4.9,5.4,72,0.00,,,0.00,86.20,VWS V14.01,2013-09-20 19:58:00,
2013-09-20 15:59:00,71.0,62.5,29.75,SW,220,6.6,6.6,75,0.00,,,0.00,87.73,VWS V14.01,2013-09-20 19:59:00,
2013-09-20 16:00:00,71.0,62.7,29.76,SW,226,5.4,6.6,75,0.00,,,0.00,92.31,VWS V14.01,2013-09-20 20:00:00,
2013-09-20 16:01:00,71.0,63.0,29.75,SW,215,4.5,6.9,76,0.00,,,0.00,95.30,VWS V14.01,2013-09-20 20:01:00,
2013-09-20 16:03:00,71.1,63.2,29.75,SW,231,5.1,6.6,76,0.00,,,0.00,92.67,VWS V14.01,2013-09-20 20:03:00,
2013-09-20 16:04:00,71.2,62.9,29.75,SW,230,6.1,6.1,75,0.00,,,0.00,77.96,VWS V14.01,2013-09-20 20:04:00,
2013-09-20 16:06:00,71.1,62.8,29.76,WSW,237,4.4,6.1,75,0.00,,,0.00,75.52,VWS V14.01,2013-09-20 20:06:00,
2013-09-20 16:07:00,71.1,63.3,29.77,SW,235,4.5,4.5,76,0.00,,,0.00,86.20,VWS V14.01,2013-09-20 20:07:00,
2013-09-20 16:09:00,71.1,63.2,29.76,WSW,241,6.4,6.4,76,0.00,,,0.00,90.11,VWS V14.01,2013-09-20 20:09:00,
2013-09-20 16:11:00,71.2,63.2,29.76,SW,226,5.7,7.1,76,0.00,,,0.00,96.70,VWS V14.01,2013-09-20 20:11:00,
2013-09-20 16:12:00,71.2,63.3,29.76,WSW,238,6.1,6.1,76,0.00,,,0.00,97.74,VWS V14.01,2013-09-20 20:12:00,
2013-09-20 16:13:00,71.3,63.7,29.75,SW,221,5.2,6.1,77,0.00,,,0.00,102.38,VWS V14.01,2013-09-20 20:13:00,
2013-09-20 16:15:00,71.3,64.0,29.76,WSW,243,3.5,5.2,78,0.00,,,0.00,110.07,VWS V14.01,2013-09-20 20:15:00,
2013-09-20 16:17:00,71.3,63.6,29.76,WSW,258,5.7,5.7,77,0.00,,,0.00,102.38,VWS V14.01,2013-09-20 20:17:00,
2013-09-20 16:18:00,71.5,63.2,29.76,SW,233,5.2,5.6,75,0.00,,,0.00,92.98,VWS V14.01,2013-09-20 20:18:00,
2013-09-20 16:19:00,71.5,63.2,29.75,SW,230,6.4,6.4,75,0.00,,,0.00,88.46,VWS V14.01,2013-09-20 20:19:00,
2013-09-20 16:22:00,71.1,64.1,29.75,SSW,213,4.4,4.9,79,0.00,,,0.00,75.52,VWS V14.01,2013-09-20 20:22:00,
2013-09-20 16:23:00,71.0,64.1,29.76,SSW,205,5.4,5.4,79,0.00,,,0.00,72.83,VWS V14.01,2013-09-20 20:23:00,
2013-09-20 16:24:00,71.1,64.6,29.76,SW,219,3.9,3.9,80,0.00,,,0.00,66.18,VWS V14.01,2013-09-20 20:24:00,
2013-09-20 16:25:00,71.1,64.5,29.75,SW,234,4.7,4.7,80,0.00,,,0.00,63.31,VWS V14.01,2013-09-20 20:25:00,
2013-09-20 16:26:00,71.0,64.4,29.75,SW,227,4.7,4.7,80,0.00,,,0.00,60.74,VWS V14.01,2013-09-20 20:26:00,
2013-09-20 16:28:00,71.1,64.3,29.76,SSW,213,4.2,4.7,79,0.00,,,0.00,59.65,VWS V14.01,2013-09-20 20:28:00,
2013-09-20 16:29:00,71.0,64.2,29.75,SSW,208,5.1,6.9,79,0.00,,,0.00,63.31,VWS V14.01,2013-09-20 20:29:00,
2013-09-20 16:30:00,71.1,64.1,29.75,SW,228,5.1,7.3,78,0.00,,,0.00,68.19,VWS V14.01,2013-09-20 20:30:00,
2013-09-20 16:32:00,71.2,64.1,29.76,SSW,209,5.7,5.7,78,0.00,,,0.00,70.39,VWS V14.01,2013-09-20 20:32:00,
2013-09-20 16:33:00,71.1,64.1,29.75,SSW,207,4.2,5.2,78,0.00,,,0.00,71.18,VWS V14.01,2013-09-20 20:33:00,
2013-09-20 16:34:00,71.2,64.2,29.75,SW,228,4.2,6.6,79,0.00,,,0.00,70.63,VWS V14.01,2013-09-20 20:34:00,
2013-09-20 16:36:00,71.2,64.2,29.75,SSW,213,5.1,5.1,79,0.00,,,0.00,73.08,VWS V14.01,2013-09-20 20:36:00,
2013-09-20 16:37:00,71.3,64.1,29.74,SW,214,5.6,6.9,78,0.00,,,0.00,75.76,VWS V14.01,2013-09-20 20:37:00,
2013-09-20 16:38:00,71.3,63.6,29.75,SW,227,5.7,7.1,77,0.00,,,0.00,81.01,VWS V14.01,2013-09-20 20:38:00,
2013-09-20 16:40:00,71.4,63.3,29.78,WSW,242,5.9,6.8,76,0.00,,,0.00,82.84,VWS V14.01,2013-09-20 20:40:00,
2013-09-20 16:41:00,71.4,63.4,29.76,SW,236,5.7,5.9,76,0.00,,,0.00,84.49,VWS V14.01,2013-09-20 20:41:00,
2013-09-20 16:43:00,71.6,62.9,29.75,WSW,244,6.9,6.9,74,0.00,,,0.00,87.97,VWS V14.01,2013-09-20 20:43:00,
2013-09-20 16:45:00,71.5,63.3,29.75,SW,228,4.4,5.6,75,0.00,,,0.00,92.37,VWS V14.01,2013-09-20 20:45:00,
2013-09-20 16:46:00,71.6,63.2,29.75,WSW,238,4.0,5.4,75,0.00,,,0.00,97.25,VWS V14.01,2013-09-20 20:46:00,
2013-09-20 16:49:00,71.8,63.2,29.74,SW,232,5.2,5.2,74,0.00,,,0.00,113.37,VWS V14.01,2013-09-20 20:49:00,
2013-09-20 16:50:00,71.7,63.3,29.74,WSW,241,5.4,5.4,75,0.00,,,0.00,116.06,VWS V14.01,2013-09-20 20:50:00,
2013-09-20 16:51:00,71.7,62.9,29.74,SW,231,5.6,5.6,74,0.00,,,0.00,123.63,VWS V14.01,2013-09-20 20:51:00,
2013-09-20 16:52:00,71.6,63.3,29.74,WSW,250,4.0,4.0,75,0.00,,,0.00,134.13,VWS V14.01,2013-09-20 20:52:00,
2013-09-20 16:54:00,72.0,63.4,29.74,SW,232,5.2,5.2,74,0.00,,,0.00,138.77,VWS V14.01,2013-09-20 20:54:00,
2013-09-20 16:56:00,71.7,62.9,29.75,WSW,248,4.7,5.1,74,0.00,,,0.00,126.80,VWS V14.01,2013-09-20 20:56:00,
2013-09-20 16:57:00,71.8,63.3,29.74,WSW,246,4.7,4.7,74,0.00,,,0.00,118.25,VWS V14.01,2013-09-20 20:57:00,
2013-09-20 17:00:00,71.9,62.8,29.75,WSW,241,4.0,4.7,73,0.00,,,0.00,110.20,VWS V14.01,2013-09-20 21:00:00,
2013-09-20 17:01:00,71.7,63.7,29.74,WSW,255,3.0,4.0,76,0.00,,,0.00,107.26,VWS V14.01,2013-09-20 21:01:00,
2013-09-20 17:04:00,71.9,63.2,29.74,WSW,239,3.5,5.1,74,0.00,,,0.00,102.38,VWS V14.01,2013-09-20 21:04:00,
2013-09-20 17:05:00,71.7,63.4,29.74,WSW,237,4.4,4.4,75,0.00,,,0.00,100.92,VWS V14.01,2013-09-20 21:05:00,
2013-09-20 17:06:00,71.9,63.7,29.74,WSW,237,2.7,4.0,75,0.00,,,0.00,99.63,VWS V14.01,2013-09-20 21:06:00,
2013-09-20 17:08:00,71.8,63.3,29.75,WSW,244,4.4,4.4,75,0.00,,,0.00,99.94,VWS V14.01,2013-09-20 21:08:00,
2013-09-20 17:09:00,71.8,61.9,29.74,West,268,3.5,4.5,71,0.00,,,0.00,102.38,VWS V14.01,2013-09-20 21:09:00,
2013-09-20 17:12:00,72.1,62.0,29.74,West,268,4.5,4.5,71,0.00,,,0.00,105.56,VWS V14.01,2013-09-20 21:12:00,
2013-09-20 17:13:00,72.1,61.9,29.74,WNW,285,4.4,4.5,70,0.00,,,0.00,104.58,VWS V14.01,2013-09-20 21:13:00,
2013-09-20 17:15:00,71.9,60.9,29.74,WNW,294,5.6,5.6,68,0.00,,,0.00,99.94,VWS V14.01,2013-09-20 21:15:00,
2013-09-20 17:17:00,72.0,59.9,29.74,WNW,301,6.6,6.6,66,0.00,,,0.00,100.43,VWS V14.01,2013-09-20 21:17:00,
2013-09-20 17:19:00,71.9,60.2,29.74,WNW,290,5.6,6.6,67,0.00,,,0.00,119.47,VWS V14.01,2013-09-20 21:19:00,
2013-09-20 17:20:00,72.0,59.2,29.73,NW,320,6.3,7.6,64,0.00,,,0.00,129.85,VWS V14.01,2013-09-20 21:20:00,
2013-09-20 17:24:00,72.2,60.0,29.74,WNW,288,5.1,5.1,65,0.00,,,0.00,126.80,VWS V14.01,2013-09-20 21:24:00,
2013-09-20 17:25:00,72.2,60.1,29.73,West,277,3.2,3.2,66,0.00,,,0.00,134.13,VWS V14.01,2013-09-20 21:25:00,
2013-09-20 17:27:00,72.3,60.2,29.73,WNW,282,4.7,4.7,65,0.00,,,0.00,161.42,VWS V14.01,2013-09-20 21:27:00,
2013-09-20 17:29:00,72.5,60.3,29.73,NW,305,4.9,5.4,66,0.00,,,0.00,158.55,VWS V14.01,2013-09-20 21:29:00,
2013-09-20 17:30:00,72.6,58.8,29.74,WNW,299,5.6,5.6,62,0.00,,,0.00,153.66,VWS V14.01,2013-09-20 21:30:00,
2013-09-20 17:31:00,72.6,58.6,29.73,West,259,4.0,6.6,61,0.00,,,0.00,141.15,VWS V14.01,2013-09-20 21:31:00,
2013-09-20 17:33:00,72.5,58.1,29.73,West,274,7.6,7.6,60,0.00,,,0.00,134.19,VWS V14.01,2013-09-20 21:33:00,
2013-09-20 17:35:00,72.0,58.4,29.73,WSW,257,4.0,6.9,62,0.00,,,0.00,115.08,VWS V14.01,2013-09-20 21:35:00,
2013-09-20 17:38:00,72.2,58.2,29.73,West,268,5.9,6.3,61,0.00,,,0.00,99.02,VWS V14.01,2013-09-20 21:38:00,
2013-09-20 17:39:00,71.8,58.8,29.73,WSW,253,4.0,7.3,63,0.00,,,0.00,95.97,VWS V14.01,2013-09-20 21:39:00,
2013-09-20 17:40:00,72.2,58.7,29.73,West,266,6.1,6.1,63,0.00,,,0.00,95.06,VWS V14.01,2013-09-20 21:40:00,
2013-09-20 17:41:00,72.2,57.7,29.73,West,267,8.8,8.8,60,0.00,,,0.00,95.97,VWS V14.01,2013-09-20 21:41:00,
2013-09-20 17:43:00,72.2,57.7,29.73,WNW,296,5.7,7.5,60,0.00,,,0.00,95.67,VWS V14.01,2013-09-20 21:43:00,
2013-09-20 17:44:00,72.2,56.7,29.73,WNW,286,8.3,9.3,58,0.00,,,0.00,95.67,VWS V14.01,2013-09-20 21:44:00,
2013-09-20 17:45:00,72.1,56.7,29.74,West,264,8.8,9.3,58,0.00,,,0.00,95.42,VWS V14.01,2013-09-20 21:45:00,
2013-09-20 17:46:00,71.9,56.8,29.74,West,271,8.3,8.8,59,0.00,,,0.00,89.99,VWS V14.01,2013-09-20 21:46:00,
2013-09-20 17:48:00,72.2,57.1,29.74,West,278,9.0,9.0,59,0.00,,,0.00,75.15,VWS V14.01,2013-09-20 21:48:00,
2013-09-20 17:49:00,72.1,57.5,29.74,West,275,7.6,9.0,60,0.00,,,0.00,71.61,VWS V14.01,2013-09-20 21:49:00,
2013-09-20 17:51:00,72.2,57.9,29.74,WSW,257,9.0,9.2,61,0.00,,,0.00,63.31,VWS V14.01,2013-09-20 21:51:00,
2013-09-20 17:52:00,72.3,57.1,29.75,WSW,254,9.9,9.9,59,0.00,,,0.00,57.94,VWS V14.01,2013-09-20 21:52:00,
2013-09-20 17:54:00,72.2,57.6,29.77,WSW,254,8.0,8.0,60,0.00,,,0.00,45.24,VWS V14.01,2013-09-20 21:54:00,
2013-09-20 17:55:00,72.2,57.6,29.77,WSW,254,8.0,8.0,60,0.00,,,0.00,45.24,VWS V14.01,2013-09-20 21:55:00,
2013-09-20 17:56:00,72.2,57.5,29.75,West,263,7.6,7.6,60,0.00,,,0.00,39.32,VWS V14.01,2013-09-20 21:56:00,
2013-09-20 17:57:00,71.5,57.4,29.74,West,273,5.9,7.6,61,0.00,,,0.00,41.33,VWS V14.01,2013-09-20 21:57:00,
2013-09-20 18:00:00,71.4,57.7,29.74,WSW,253,4.2,5.7,62,0.00,,,0.00,40.17,VWS V14.01,2013-09-20 22:00:00,
2013-09-20 18:01:00,72.0,57.7,29.74,WSW,257,6.1,6.1,61,0.00,,,0.00,41.70,VWS V14.01,2013-09-20 22:01:00,
2013-09-20 18:02:00,71.8,57.6,29.74,WNW,283,5.9,6.1,61,0.00,,,0.00,41.33,VWS V14.01,2013-09-20 22:02:00,
2013-09-20 18:05:00,71.9,58.1,29.73,West,266,5.2,5.7,62,0.00,,,0.00,51.10,VWS V14.01,2013-09-20 22:05:00,
2013-09-20 18:07:00,72.3,57.4,29.74,West,260,9.3,9.3,59,0.00,,,0.00,57.69,VWS V14.01,2013-09-20 22:07:00,
2013-09-20 18:10:00,71.9,57.0,29.74,WSW,250,7.5,7.6,59,0.00,,,0.00,53.91,VWS V14.01,2013-09-20 22:10:00,
2013-09-20 18:11:00,71.5,57.3,29.73,WSW,251,3.9,3.9,61,0.00,,,0.00,51.10,VWS V14.01,2013-09-20 22:11:00,
2013-09-20 18:12:00,71.3,58.0,29.73,WSW,251,4.0,4.0,63,0.00,,,0.00,45.97,VWS V14.01,2013-09-20 22:12:00,
2013-09-20 18:13:00,72.0,57.9,29.73,West,279,4.7,5.7,61,0.00,,,0.00,41.82,VWS V14.01,2013-09-20 22:13:00,
2013-09-20 18:16:00,71.2,57.7,29.74,WSW,255,5.9,7.1,62,0.00,,,0.00,36.45,VWS V14.01,2013-09-20 22:16:00,
2013-09-20 18:17:00,71.4,57.8,29.73,West,270,6.6,6.6,62,0.00,,,0.00,36.45,VWS V14.01,2013-09-20 22:17:00,
2013-09-20 18:18:00,71.1,58.2,29.74,West,281,5.6,5.6,64,0.00,,,0.00,36.45,VWS V14.01,2013-09-20 22:18:00,
2013-09-20 18:20:00,70.7,58.7,29.73,West,263,5.9,5.9,66,0.00,,,0.00,38.89,VWS V14.01,2013-09-20 22:20:00,
2013-09-20 18:22:00,70.7,59.3,29.74,West,267,4.5,4.5,67,0.00,,,0.00,38.77,VWS V14.01,2013-09-20 22:22:00,
2013-09-20 18:23:00,70.6,59.5,29.74,WSW,256,4.5,4.5,68,0.00,,,0.00,38.28,VWS V14.01,2013-09-20 22:23:00,
2013-09-20 18:24:00,71.0,59.4,29.74,West,263,6.3,6.3,67,0.00,,,0.00,38.16,VWS V14.01,2013-09-20 22:24:00,
2013-09-20 18:25:00,71.3,59.8,29.74,WSW,258,5.9,6.3,67,0.00,,,0.00,36.45,VWS V14.01,2013-09-20 22:25:00,
2013-09-20 18:29:00,70.6,59.2,29.74,West,266,5.1,8.0,67,0.00,,,0.00,31.56,VWS V14.01,2013-09-20 22:29:00,
2013-09-20 18:32:00,70.8,59.7,29.74,WSW,253,5.9,5.9,68,0.00,,,0.00,27.84,VWS V14.01,2013-09-20 22:32:00,
2013-09-20 18:34:00,70.3,60.0,29.74,WSW,249,5.1,5.1,70,0.00,,,0.00,22.10,VWS V14.01,2013-09-20 22:34:00,
2013-09-20 18:35:00,70.8,60.5,29.74,WSW,242,5.1,5.1,70,0.00,,,0.00,19.35,VWS V14.01,2013-09-20 22:35:00,
2013-09-20 18:37:00,70.2,60.5,29.74,WSW,248,5.4,5.4,71,0.00,,,0.00,16.48,VWS V14.01,2013-09-20 22:37:00,
2013-09-20 18:39:00,70.1,60.2,29.73,WSW,238,6.8,6.8,71,0.00,,,0.00,14.71,VWS V14.01,2013-09-20 22:39:00,
2013-09-20 18:40:00,70.0,60.5,29.73,WSW,247,5.4,5.4,72,0.00,,,0.00,14.47,VWS V14.01,2013-09-20 22:40:00,
2013-09-20 18:41:00,70.5,60.9,29.74,WSW,258,6.9,6.9,72,0.00,,,0.00,14.47,VWS V14.01,2013-09-20 22:41:00,
2013-09-20 18:42:00,70.1,60.6,29.74,WSW,254,5.7,5.7,72,0.00,,,0.00,13.49,VWS V14.01,2013-09-20 22:42:00,
2013-09-20 18:44:00,69.6,61.2,29.74,WSW,243,4.5,4.5,74,0.00,,,0.00,11.42,VWS V14.01,2013-09-20 22:44:00,
2013-09-20 18:45:00,69.6,61.0,29.73,WSW,247,4.7,5.4,74,0.00,,,0.00,8.97,VWS V14.01,2013-09-20 22:45:00,
2013-09-20 18:47:00,70.0,61.5,29.73,WSW,255,5.7,5.7,75,0.00,,,0.00,9.34,VWS V14.01,2013-09-20 22:47:00,
2013-09-20 18:48:00,69.2,61.2,29.72,WSW,251,3.4,5.7,76,0.00,,,0.00,8.67,VWS V14.01,2013-09-20 22:48:00,
2013-09-20 18:50:00,69.4,61.7,29.73,WSW,242,4.7,4.9,77,0.00,,,0.00,9.58,VWS V14.01,2013-09-20 22:50:00,
2013-09-20 18:51:00,69.4,61.7,29.74,WSW,258,4.5,5.7,76,0.00,,,0.00,7.57,VWS V14.01,2013-09-20 22:51:00,
2013-09-20 18:54:00,69.4,62.1,29.74,WSW,252,4.4,4.5,77,0.00,,,0.00,7.14,VWS V14.01,2013-09-20 22:54:00,
2013-09-20 18:55:00,69.5,62.1,29.74,WSW,244,5.7,5.7,77,0.00,,,0.00,7.45,VWS V14.01,2013-09-20 22:55:00,
2013-09-20 18:56:00,69.3,61.8,29.74,WSW,253,4.4,5.7,77,0.00,,,0.00,7.14,VWS V14.01,2013-09-20 22:56:00,
2013-09-20 18:57:00,69.6,61.9,29.74,SW,229,6.1,6.1,77,0.00,,,0.00,7.45,VWS V14.01,2013-09-20 22:57:00,
2013-09-20 19:00:00,69.1,62.3,29.74,WSW,247,4.4,4.5,79,0.00,,,0.00,6.90,VWS V14.01,2013-09-20 23:00:00,
2013-09-20 19:01:00,69.1,62.3,29.74,WSW,247,4.4,4.5,79,0.00,,,0.00,6.90,VWS V14.01,2013-09-20 23:01:00,
2013-09-20 19:02:00,68.9,62.1,29.75,WSW,251,5.1,5.6,79,0.00,,,0.00,6.17,VWS V14.01,2013-09-20 23:02:00,
2013-09-20 19:06:00,69.0,62.6,29.74,WSW,258,6.9,6.9,80,0.00,,,0.00,4.95,VWS V14.01,2013-09-20 23:06:00,
2013-09-20 19:07:00,68.8,62.3,29.74,WSW,250,6.8,6.8,80,0.00,,,0.00,4.40,VWS V14.01,2013-09-20 23:07:00,
2013-09-20 19:08:00,68.4,62.2,29.74,West,261,3.5,6.8,80,0.00,,,0.00,4.70,VWS V14.01,2013-09-20 23:08:00,
2013-09-20 19:09:00,69.0,62.8,29.74,West,261,7.3,7.3,81,0.00,,,0.00,5.31,VWS V14.01,2013-09-20 23:09:00,
2013-09-20 19:12:00,68.7,62.5,29.74,WSW,254,6.4,7.3,81,0.00,,,0.00,5.43,VWS V14.01,2013-09-20 23:12:00,
2013-09-20 19:13:00,68.3,62.1,29.74,WSW,242,6.1,7.1,81,0.00,,,0.00,6.17,VWS V14.01,2013-09-20 23:13:00,
2013-09-20 19:14:00,68.6,60.0,29.74,WSW,244,8.1,8.1,74,0.00,,,0.00,5.19,VWS V14.01,2013-09-20 23:14:00,
2013-09-20 19:15:00,68.4,61.8,29.74,West,266,6.8,8.1,80,0.00,,,0.00,5.19,VWS V14.01,2013-09-20 23:15:00,
2013-09-20 19:17:00,67.8,62.2,29.74,WSW,255,3.5,7.3,82,0.00,,,0.00,4.70,VWS V14.01,2013-09-20 23:17:00,
2013-09-20 19:19:00,68.1,62.8,29.75,WSW,246,4.7,4.7,83,0.00,,,0.00,4.40,VWS V14.01,2013-09-20 23:19:00,
2013-09-20 19:20:00,68.2,63.0,29.74,WSW,242,5.6,5.6,83,0.00,,,0.00,4.70,VWS V14.01,2013-09-20 23:20:00,
2013-09-20 19:21:00,68.1,62.8,29.74,WSW,245,5.1,5.1,83,0.00,,,0.00,4.70,VWS V14.01,2013-09-20 23:21:00,
2013-09-20 19:24:00,68.0,63.1,29.73,WSW,240,5.6,5.6,84,0.00,,,0.00,2.50,VWS V14.01,2013-09-20 23:24:00,
2013-09-20 19:25:00,68.2,63.2,29.74,WSW,246,5.4,5.6,84,0.00,,,0.00,2.26,VWS V14.01,2013-09-20 23:25:00,
2013-09-20 19:29:00,67.6,63.4,29.74,SW,227,4.9,4.9,86,0.00,,,0.00,1.95,VWS V14.01,2013-09-20 23:29:00,
2013-09-20 19:30:00,67.5,63.3,29.74,WSW,237,4.2,4.9,86,0.00,,,0.00,1.28,VWS V14.01,2013-09-20 23:30:00,
2013-09-20 19:31:00,67.6,63.5,29.74,SW,234,3.7,4.2,87,0.00,,,0.00,1.04,VWS V14.01,2013-09-20 23:31:00,
2013-09-20 19:36:00,67.5,63.7,29.74,SW,228,3.9,4.0,88,0.00,,,0.00,0.06,VWS V14.01,2013-09-20 23:36:00,
2013-09-20 19:37:00,67.5,63.8,29.74,SW,223,5.1,5.1,88,0.00,,,0.00,0.00,VWS V14.01,2013-09-20 23:37:00,
2013-09-20 19:39:00,67.3,63.7,29.75,SW,234,3.5,3.7,88,0.00,,,0.00,0.00,VWS V14.01,2013-09-20 23:39:00,
2013-09-20 19:41:00,67.5,64.0,29.74,West,267,3.2,3.2,89,0.00,,,0.00,0.00,VWS V14.01,2013-09-20 23:41:00,
2013-09-20 19:42:00,67.7,64.2,29.73,WSW,243,4.2,4.2,89,0.00,,,0.00,0.00,VWS V14.01,2013-09-20 23:42:00,
2013-09-20 19:44:00,67.5,64.0,29.74,WSW,237,4.0,4.0,89,0.00,,,0.00,0.73,VWS V14.01,2013-09-20 23:44:00,
2013-09-20 19:45:00,67.4,64.0,29.74,SW,227,3.2,4.0,89,0.00,,,0.00,0.73,VWS V14.01,2013-09-20 23:45:00,
2013-09-20 19:46:00,67.4,64.0,29.74,SW,229,4.4,4.4,89,0.00,,,0.00,0.00,VWS V14.01,2013-09-20 23:46:00,
2013-09-20 19:47:00,67.3,64.0,29.74,SW,235,3.7,4.4,89,0.00,,,0.00,0.00,VWS V14.01,2013-09-20 23:47:00,
2013-09-20 19:48:00,67.3,64.0,29.74,SW,231,3.5,3.7,89,0.00,,,0.00,0.00,VWS V14.01,2013-09-20 23:48:00,
2013-09-20 19:49:00,67.2,64.0,29.73,SW,224,3.5,3.7,89,0.00,,,0.00,0.73,VWS V14.01,2013-09-20 23:49:00,
2013-09-20 19:51:00,67.2,64.0,29.74,SW,227,3.2,3.2,89,0.00,,,0.00,0.73,VWS V14.01,2013-09-20 23:51:00,
2013-09-20 19:52:00,67.2,64.0,29.73,SW,224,3.0,3.0,90,0.00,,,0.00,0.00,VWS V14.01,2013-09-20 23:52:00,
2013-09-20 19:55:00,67.2,64.2,29.74,SW,218,3.9,3.9,90,0.00,,,0.00,0.00,VWS V14.01,2013-09-20 23:55:00,
2013-09-20 19:56:00,67.2,64.2,29.74,SW,220,3.5,3.5,90,0.00,,,0.00,0.00,VWS V14.01,2013-09-20 23:56:00,
2013-09-20 19:57:00,67.2,64.3,29.74,SW,222,3.4,3.5,90,0.00,,,0.00,0.00,VWS V14.01,2013-09-20 23:57:00,
2013-09-20 19:58:00,67.0,64.1,29.74,SW,223,2.3,3.4,90,0.00,,,0.00,0.00,VWS V14.01,2013-09-20 23:58:00,
2013-09-20 20:00:00,67.3,64.4,29.74,SSW,199,2.5,2.8,90,0.00,,,0.00,0.00,VWS V14.01,2013-09-21 00:00:00,
2013-09-20 20:01:00,67.1,64.2,29.74,SW,220,3.2,3.2,90,0.00,,,0.00,0.00,VWS V14.01,2013-09-21 00:01:00,
2013-09-20 20:02:00,67.1,64.2,29.74,SW,228,3.5,3.5,90,0.00,,,0.00,0.00,VWS V14.01,2013-09-21 00:02:00,
2013-09-20 20:04:00,67.0,64.2,29.74,SW,236,2.2,3.2,91,0.00,,,0.00,0.00,VWS V14.01,2013-09-21 00:04:00,
2013-09-20 20:05:00,67.0,64.2,29.74,SW,236,2.2,3.2,91,0.00,,,0.00,0.00,VWS V14.01,2013-09-21 00:05:00,
2013-09-20 20:06:00,67.1,64.2,29.74,WSW,242,3.5,3.5,90,0.00,,,0.00,0.00,VWS V14.01,2013-09-21 00:06:00,
2013-09-20 20:07:00,67.1,64.2,29.74,SW,223,3.9,3.9,90,0.00,,,0.00,0.00,VWS V14.01,2013-09-21 00:07:00,
2013-09-20 20:10:00,67.1,64.2,29.74,SW,229,4.4,4.4,90,0.00,,,0.00,0.00,VWS V14.01,2013-09-21 00:10:00,
2013-09-20 20:11:00,66.9,64.0,29.75,WSW,242,2.5,4.4,90,0.00,,,0.00,0.00,VWS V14.01,2013-09-21 00:11:00,
2013-09-20 20:12:00,67.0,64.1,29.74,SW,236,2.8,4.4,90,0.00,,,0.00,0.00,VWS V14.01,2013-09-21 00:12:00,
2013-09-20 20:14:00,66.9,64.1,29.74,SW,228,3.2,3.4,91,0.00,,,0.00,0.00,VWS V14.01,2013-09-21 00:14:00,
2013-09-20 20:15:00,66.9,64.1,29.74,WSW,238,3.5,5.4,91,0.00,,,0.00,0.43,VWS V14.01,2013-09-21 00:15:00,
2013-09-20 20:18:00,66.8,64.1,29.74,SW,228,3.4,3.7,91,0.00,,,0.00,0.00,VWS V14.01,2013-09-21 00:18:00,
2013-09-20 20:19:00,66.8,64.2,29.74,SW,235,3.7,3.9,91,0.00,,,0.00,0.43,VWS V14.01,2013-09-21 00:19:00,
2013-09-20 20:20:00,66.8,64.2,29.74,SW,235,3.7,3.7,91,0.00,,,0.00,0.43,VWS V14.01,2013-09-21 00:20:00,
2013-09-20 20:21:00,66.8,64.1,29.74,WSW,238,3.9,5.1,91,0.00,,,0.00,0.00,VWS V14.01,2013-09-21 00:21:00,
2013-09-20 20:24:00,66.9,64.3,29.74,WSW,251,4.5,5.4,91,0.00,,,0.00,0.00,VWS V14.01,2013-09-21 00:24:00,
2013-09-20 20:25:00,66.9,64.2,29.74,SW,231,5.6,5.6,91,0.00,,,0.00,0.00,VWS V14.01,2013-09-21 00:25:00,
2013-09-20 20:27:00,66.7,64.1,29.75,SW,233,3.9,6.1,91,0.00,,,0.00,0.00,VWS V14.01,2013-09-21 00:27:00,
2013-09-20 20:29:00,66.8,64.3,29.75,SW,234,5.1,5.4,92,0.00,,,0.00,0.00,VWS V14.01,2013-09-21 00:29:00,
2013-09-20 20:30:00,66.8,64.3,29.74,SW,232,5.4,5.4,92,0.00,,,0.00,0.00,VWS V14.01,2013-09-21 00:30:00,
2013-09-20 20:31:00,66.8,64.3,29.74,SW,226,6.3,6.3,92,0.00,,,0.00,0.43,VWS V14.01,2013-09-21 00:31:00,
2013-09-20 20:34:00,66.6,64.3,29.75,SW,221,5.4,5.7,92,0.00,,,0.00,0.73,VWS V14.01,2013-09-21 00:34:00,
2013-09-20 20:36:00,66.7,64.4,29.75,SW,236,5.4,5.4,92,0.00,,,0.00,0.00,VWS V14.01,2013-09-21 00:36:00,
2013-09-20 20:37:00,66.8,64.5,29.75,SW,222,7.1,7.3,92,0.04,,,0.04,0.00,VWS V14.01,2013-09-21 00:37:00,
2013-09-20 20:38:00,66.7,64.4,29.75,SW,231,5.2,7.1,92,0.04,,,0.04,0.00,VWS V14.01,2013-09-21 00:38:00,
2013-09-20 20:39:00,66.5,64.3,29.75,SW,229,3.4,3.4,93,0.04,,,0.04,0.00,VWS V14.01,2013-09-21 00:39:00,
2013-09-20 20:41:00,66.6,64.5,29.74,SW,220,4.7,4.9,93,0.04,,,0.04,0.00,VWS V14.01,2013-09-21 00:41:00,
2013-09-20 20:42:00,66.5,64.4,29.74,SW,223,3.2,3.2,93,0.04,,,0.04,0.00,VWS V14.01,2013-09-21 00:42:00,
2013-09-20 20:43:00,66.5,64.5,29.75,SW,226,3.7,4.0,93,0.04,,,0.04,0.43,VWS V14.01,2013-09-21 00:43:00,
2013-09-20 20:44:00,66.4,64.5,29.77,SW,230,2.7,2.8,94,0.04,,,0.04,0.43,VWS V14.01,2013-09-21 00:44:00,
2013-09-20 20:46:00,66.4,64.6,29.75,SW,219,3.9,4.2,94,0.04,,,0.04,0.00,VWS V14.01,2013-09-21 00:46:00,
2013-09-20 20:47:00,66.4,64.6,29.75,SW,217,3.4,3.4,94,0.04,,,0.04,0.12,VWS V14.01,2013-09-21 00:47:00,
2013-09-20 20:49:00,66.4,64.7,29.75,SW,225,3.2,4.5,94,0.04,,,0.04,0.12,VWS V14.01,2013-09-21 00:49:00,
2013-09-20 20:50:00,66.4,64.8,29.75,SW,223,5.1,5.7,94,0.04,,,0.04,0.00,VWS V14.01,2013-09-21 00:50:00,
2013-09-20 20:52:00,66.4,64.8,29.75,SW,218,4.2,4.2,95,0.04,,,0.04,0.43,VWS V14.01,2013-09-21 00:52:00,
2013-09-20 20:53:00,66.4,64.8,29.74,SW,216,4.0,4.2,95,0.04,,,0.04,0.00,VWS V14.01,2013-09-21 00:53:00,
2013-09-20 20:54:00,66.3,64.8,29.74,SW,225,3.4,4.5,95,0.04,,,0.04,0.00,VWS V14.01,2013-09-21 00:54:00,
2013-09-20 20:55:00,66.3,64.9,29.74,SW,236,2.7,3.5,95,0.04,,,0.04,0.00,VWS V14.01,2013-09-21 00:55:00,
2013-09-20 20:58:00,66.3,64.9,29.74,SW,230,4.0,4.0,95,0.04,,,0.04,0.00,VWS V14.01,2013-09-21 00:58:00,
2013-09-20 21:00:00,66.3,65.0,29.74,SW,236,4.7,4.7,96,0.04,,,0.04,0.00,VWS V14.01,2013-09-21 01:00:00,
2013-09-20 21:01:00,66.5,65.2,29.74,SW,228,5.4,5.4,96,0.04,,,0.04,0.00,VWS V14.01,2013-09-21 01:01:00,
2013-09-20 21:02:00,66.5,65.2,29.74,SW,228,5.4,5.4,96,0.04,,,0.04,0.00,VWS V14.01,2013-09-21 01:02:00,
2013-09-20 21:03:00,66.4,65.2,29.74,SW,215,5.1,5.1,96,0.04,,,0.04,0.00,VWS V14.01,2013-09-21 01:03:00,
2013-09-20 21:04:00,66.4,65.1,29.74,SW,227,4.0,5.1,96,0.04,,,0.04,0.00,VWS V14.01,2013-09-21 01:04:00,
2013-09-20 21:06:00,66.4,65.2,29.75,SW,222,5.9,5.9,96,0.04,,,0.04,0.00,VWS V14.01,2013-09-21 01:06:00,
2013-09-20 21:08:00,66.3,63.7,29.74,SW,219,4.7,4.7,91,0.04,,,0.04,0.12,VWS V14.01,2013-09-21 01:08:00,
2013-09-20 21:09:00,66.3,65.1,29.74,SW,216,4.4,4.7,96,0.04,,,0.04,0.00,VWS V14.01,2013-09-21 01:09:00,
2013-09-20 21:10:00,66.2,63.8,29.74,WSW,249,2.7,3.7,92,0.04,,,0.04,0.00,VWS V14.01,2013-09-21 01:10:00,
2013-09-20 21:11:00,66.2,65.1,29.75,SW,229,4.7,4.7,96,0.04,,,0.04,0.00,VWS V14.01,2013-09-21 01:11:00,
2013-09-20 21:13:00,66.2,65.1,29.75,WSW,242,3.5,4.5,96,0.04,,,0.04,0.43,VWS V14.01,2013-09-21 01:13:00,
2013-09-20 21:15:00,66.3,65.2,29.75,SW,230,4.5,4.9,96,0.04,,,0.04,0.00,VWS V14.01,2013-09-21 01:15:00,
2013-09-20 21:16:00,66.3,65.2,29.75,SW,234,4.4,4.4,96,0.04,,,0.04,0.00,VWS V14.01,2013-09-21 01:16:00,
2013-09-20 21:17:00,66.2,65.2,29.75,WSW,241,3.7,4.4,97,0.04,,,0.04,0.00,VWS V14.01,2013-09-21 01:17:00,
2013-09-20 21:20:00,66.3,65.4,29.75,WSW,242,5.1,5.1,97,0.04,,,0.04,0.00,VWS V14.01,2013-09-21 01:20:00,
2013-09-20 21:21:00,66.3,65.3,29.75,SW,221,4.7,5.1,97,0.04,,,0.04,0.00,VWS V14.01,2013-09-21 01:21:00,
2013-09-20 21:22:00,66.2,65.3,29.73,WSW,241,3.2,4.7,97,0.04,,,0.04,0.00,VWS V14.01,2013-09-21 01:22:00,
2013-09-20 21:23:00,66.2,65.2,29.75,SW,221,3.7,3.7,97,0.04,,,0.04,0.00,VWS V14.01,2013-09-21 01:23:00,
2013-09-20 21:26:00,66.3,65.4,29.74,SW,232,4.9,5.2,97,0.04,,,0.04,0.00,VWS V14.01,2013-09-21 01:26:00,
2013-09-20 21:27:00,66.2,65.3,29.74,WSW,242,2.7,2.7,97,0.04,,,0.04,0.00,VWS V14.01,2013-09-21 01:27:00,
2013-09-20 21:28:00,66.2,65.3,29.74,WSW,240,3.0,3.0,97,0.04,,,0.04,0.00,VWS V14.01,2013-09-21 01:28:00,
2013-09-20 21:29:00,66.2,65.4,29.75,SW,231,4.0,4.0,97,0.04,,,0.04,0.00,VWS V14.01,2013-09-21 01:29:00,
2013-09-20 21:33:00,66.2,65.4,29.74,SW,219,3.4,3.4,97,0.08,,,0.08,0.43,VWS V14.01,2013-09-21 01:33:00,
2013-09-20 21:34:00,66.2,65.4,29.74,SW,226,3.4,3.9,98,0.08,,,0.08,0.00,VWS V14.01,2013-09-21 01:34:00,
2013-09-20 21:35:00,66.2,65.5,29.73,WSW,240,4.7,4.7,98,0.08,,,0.08,0.00,VWS V14.01,2013-09-21 01:35:00,
2013-09-20 21:38:00,66.2,65.5,29.74,SW,236,3.9,4.5,98,0.04,,,0.08,0.00,VWS V14.01,2013-09-21 01:38:00,
2013-09-20 21:39:00,66.2,65.5,29.74,SW,236,3.9,4.5,98,0.04,,,0.08,0.00,VWS V14.01,2013-09-21 01:39:00,
2013-09-20 21:40:00,66.2,65.5,29.74,SW,228,3.2,4.7,98,0.04,,,0.08,0.00,VWS V14.01,2013-09-21 01:40:00,
2013-09-20 21:42:00,66.1,65.5,29.74,SW,220,2.0,4.4,98,0.04,,,0.08,0.43,VWS V14.01,2013-09-21 01:42:00,
2013-09-20 21:45:00,66.2,65.5,29.74,SW,228,5.1,5.1,98,0.04,,,0.08,0.00,VWS V14.01,2013-09-21 01:45:00,
2013-09-20 21:46:00,66.2,65.6,29.74,SW,227,4.4,5.1,98,0.04,,,0.08,0.00,VWS V14.01,2013-09-21 01:46:00,
2013-09-20 21:48:00,66.2,65.6,29.74,SW,221,5.7,5.7,98,0.04,,,0.08,0.00,VWS V14.01,2013-09-21 01:48:00,
2013-09-20 21:50:00,66.3,65.7,29.74,SW,228,4.4,6.8,98,0.04,,,0.08,0.00,VWS V14.01,2013-09-21 01:50:00,
2013-09-20 21:51:00,66.1,65.5,29.73,SW,229,4.5,5.9,98,0.04,,,0.08,0.00,VWS V14.01,2013-09-21 01:51:00,
2013-09-20 21:52:00,66.1,65.5,29.74,SW,226,2.8,3.5,98,0.04,,,0.08,0.73,VWS V14.01,2013-09-21 01:52:00,
2013-09-20 21:53:00,66.2,65.6,29.74,WSW,238,4.5,4.5,98,0.04,,,0.08,0.00,VWS V14.01,2013-09-21 01:53:00,
2013-09-20 21:54:00,66.3,65.7,29.75,WSW,242,6.9,6.9,98,0.04,,,0.08,0.00,VWS V14.01,2013-09-21 01:54:00,
2013-09-20 21:58:00,66.2,65.6,29.73,WSW,245,4.4,4.4,98,0.04,,,0.08,0.00,VWS V14.01,2013-09-21 01:58:00,
2013-09-20 21:59:00,66.2,65.6,29.73,WSW,245,4.4,4.4,98,0.04,,,0.08,0.00,VWS V14.01,2013-09-21 01:59:00,
2013-09-20 22:00:00,66.2,65.6,29.73,WSW,248,5.2,5.2,98,0.04,,,0.08,0.12,VWS V14.01,2013-09-21 02:00:00,
2013-09-20 22:04:00,66.1,65.6,29.73,WSW,240,4.9,4.9,98,0.04,,,0.08,0.00,VWS V14.01,2013-09-21 02:04:00,
2013-09-20 22:05:00,66.2,65.7,29.72,WSW,253,6.4,6.4,98,0.04,,,0.08,0.00,VWS V14.01,2013-09-21 02:05:00,
2013-09-20 22:06:00,66.2,65.7,29.74,SSW,211,6.3,6.8,98,0.04,,,0.08,0.00,VWS V14.01,2013-09-21 02:06:00,
2013-09-20 22:07:00,66.2,65.7,29.73,SSW,213,3.9,6.3,98,0.04,,,0.08,0.00,VWS V14.01,2013-09-21 02:07:00,
2013-09-20 22:09:00,66.0,65.6,29.73,WSW,247,7.5,7.5,98,0.08,,,0.12,0.00,VWS V14.01,2013-09-21 02:09:00,
2013-09-20 22:10:00,66.2,65.7,29.74,WSW,251,7.8,7.8,98,0.08,,,0.12,0.12,VWS V14.01,2013-09-21 02:10:00,
2013-09-20 22:11:00,66.1,65.7,29.74,SW,232,6.3,7.8,98,0.08,,,0.12,0.00,VWS V14.01,2013-09-21 02:11:00,
2013-09-20 22:14:00,66.1,65.6,29.74,SW,232,3.4,7.8,99,0.08,,,0.12,0.00,VWS V14.01,2013-09-21 02:14:00,
2013-09-20 22:15:00,66.1,65.6,29.74,WSW,237,3.7,3.7,99,0.08,,,0.12,0.00,VWS V14.01,2013-09-21 02:15:00,
2013-09-20 22:16:00,66.1,65.7,29.74,WSW,250,6.6,6.6,99,0.08,,,0.12,0.00,VWS V14.01,2013-09-21 02:16:00,
2013-09-20 22:17:00,66.1,65.7,29.74,SW,222,5.9,5.9,99,0.08,,,0.12,0.00,VWS V14.01,2013-09-21 02:17:00,
2013-09-20 22:20:00,66.1,65.7,29.73,WSW,240,5.9,5.9,99,0.08,,,0.12,0.00,VWS V14.01,2013-09-21 02:20:00,
2013-09-20 22:22:00,66.0,65.7,29.74,WSW,240,3.4,6.1,99,0.08,,,0.12,0.00,VWS V14.01,2013-09-21 02:22:00,
2013-09-20 22:23:00,66.0,65.7,29.74,SW,235,4.5,4.5,99,0.08,,,0.12,0.00,VWS V14.01,2013-09-21 02:23:00,
2013-09-20 22:26:00,66.1,65.7,29.74,SW,228,4.0,4.0,99,0.08,,,0.12,0.00,VWS V14.01,2013-09-21 02:26:00,
2013-09-20 22:27:00,66.0,65.6,29.74,WSW,238,4.7,4.7,99,0.08,,,0.12,0.00,VWS V14.01,2013-09-21 02:27:00,
2013-09-20 22:29:00,66.0,65.6,29.73,SW,235,3.9,3.9,99,0.08,,,0.12,0.00,VWS V14.01,2013-09-21 02:29:00,
2013-09-20 22:33:00,66.0,65.7,29.75,SW,219,4.7,4.7,99,0.04,,,0.12,0.00,VWS V14.01,2013-09-21 02:33:00,
2013-09-20 22:34:00,65.9,64.0,29.74,WSW,241,3.0,3.0,94,0.04,,,0.12,0.00,VWS V14.01,2013-09-21 02:34:00,
2013-09-20 22:35:00,66.0,65.7,29.74,WSW,248,3.7,3.7,99,0.04,,,0.12,0.00,VWS V14.01,2013-09-21 02:35:00,
2013-09-20 22:37:00,66.0,64.3,29.74,WSW,250,3.2,3.2,94,0.04,,,0.12,0.00,VWS V14.01,2013-09-21 02:37:00,
2013-09-20 22:39:00,65.9,65.6,29.74,WSW,254,3.2,3.2,99,0.08,,,0.16,0.00,VWS V14.01,2013-09-21 02:39:00,
2013-09-20 22:41:00,65.9,65.6,29.74,WSW,249,0.0,2.8,99,0.08,,,0.16,0.00,VWS V14.01,2013-09-21 02:41:00,
2013-09-20 22:42:00,65.9,65.7,29.74,SW,235,3.5,3.5,99,0.08,,,0.16,0.00,VWS V14.01,2013-09-21 02:42:00,
2013-09-20 22:43:00,65.9,65.7,29.74,SW,234,1.0,2.2,99,0.08,,,0.16,0.00,VWS V14.01,2013-09-21 02:43:00,
2013-09-20 22:46:00,65.9,65.7,29.73,SW,234,3.4,3.4,99,0.08,,,0.16,0.00,VWS V14.01,2013-09-21 02:46:00,
2013-09-20 22:47:00,65.9,65.7,29.73,WSW,245,3.7,4.0,99,0.08,,,0.16,0.00,VWS V14.01,2013-09-21 02:47:00,
2013-09-20 22:48:00,65.9,65.7,29.72,WSW,248,2.7,2.7,99,0.08,,,0.16,0.00,VWS V14.01,2013-09-21 02:48:00,
2013-09-20 22:49:00,65.9,65.7,29.73,SW,236,2.3,3.0,99,0.08,,,0.16,0.12,VWS V14.01,2013-09-21 02:49:00,
2013-09-20 22:51:00,65.9,65.7,29.73,WSW,248,2.0,2.0,99,0.08,,,0.16,0.00,VWS V14.01,2013-09-21 02:51:00,
2013-09-20 22:53:00,65.9,65.7,29.73,SW,234,2.5,2.5,99,0.08,,,0.16,0.00,VWS V14.01,2013-09-21 02:53:00,
2013-09-20 22:55:00,65.9,65.8,29.73,WSW,241,4.7,4.7,99,0.08,,,0.16,0.00,VWS V14.01,2013-09-21 02:55:00,
2013-09-20 22:57:00,65.9,65.8,29.73,WSW,241,4.7,4.7,100,0.08,,,0.16,0.00,VWS V14.01,2013-09-21 02:57:00,
2013-09-20 22:58:00,65.9,65.8,29.73,SW,228,3.0,3.0,100,0.08,,,0.16,0.00,VWS V14.01,2013-09-21 02:58:00,
2013-09-20 23:01:00,65.9,65.8,29.74,WSW,238,2.8,3.4,100,0.08,,,0.16,0.00,VWS V14.01,2013-09-21 03:01:00,
2013-09-20 23:02:00,65.9,65.8,29.74,SW,236,5.6,5.6,100,0.08,,,0.16,0.43,VWS V14.01,2013-09-21 03:02:00,
2013-09-20 23:03:00,66.0,65.9,29.74,West,259,5.2,5.6,100,0.08,,,0.16,0.43,VWS V14.01,2013-09-21 03:03:00,
2013-09-20 23:04:00,65.9,65.8,29.73,West,270,4.2,4.2,100,0.12,,,0.20,0.00,VWS V14.01,2013-09-21 03:04:00,
2013-09-20 23:07:00,65.8,65.8,29.74,SW,232,5.1,5.1,100,0.12,,,0.20,0.00,VWS V14.01,2013-09-21 03:07:00,
2013-09-20 23:08:00,65.8,65.8,29.73,WSW,247,3.9,5.1,100,0.16,,,0.24,0.00,VWS V14.01,2013-09-21 03:08:00,
2013-09-20 23:10:00,65.6,65.6,29.73,SW,223,4.5,5.6,100,0.16,,,0.28,0.06,VWS V14.01,2013-09-21 03:10:00,
2013-09-20 23:13:00,65.6,65.5,29.75,WSW,252,4.4,4.4,100,0.16,,,0.28,0.00,VWS V14.01,2013-09-21 03:13:00,
2013-09-20 23:14:00,65.7,65.5,29.74,WNW,283,5.9,5.9,100,0.16,,,0.28,0.00,VWS V14.01,2013-09-21 03:14:00,
2013-09-20 23:15:00,65.6,65.5,29.73,West,259,2.5,4.4,99,0.16,,,0.28,0.00,VWS V14.01,2013-09-21 03:15:00,
2013-09-20 23:18:00,65.4,65.0,29.73,WSW,257,2.5,3.7,98,0.16,,,0.28,0.00,VWS V14.01,2013-09-21 03:18:00,
2013-09-20 23:19:00,65.3,64.7,29.73,West,264,1.8,3.5,98,0.16,,,0.28,0.00,VWS V14.01,2013-09-21 03:19:00,
2013-09-20 23:20:00,65.4,64.7,29.73,West,263,2.8,2.8,98,0.16,,,0.28,0.00,VWS V14.01,2013-09-21 03:20:00,
2013-09-20 23:21:00,65.3,64.6,29.73,West,273,2.3,2.8,97,0.16,,,0.28,0.12,VWS V14.01,2013-09-21 03:21:00,
2013-09-20 23:24:00,65.2,64.3,29.73,West,264,1.1,2.5,97,0.16,,,0.28,0.43,VWS V14.01,2013-09-21 03:24:00,
2013-09-20 23:25:00,65.3,64.3,29.73,WSW,258,3.0,3.0,97,0.16,,,0.28,0.00,VWS V14.01,2013-09-21 03:25:00,
2013-09-20 23:26:00,65.2,64.3,29.73,WSW,249,3.0,3.0,97,0.16,,,0.28,0.00,VWS V14.01,2013-09-21 03:26:00,
2013-09-20 23:27:00,65.2,64.2,29.73,WSW,241,2.0,3.0,97,0.16,,,0.28,0.00,VWS V14.01,2013-09-21 03:27:00,
2013-09-20 23:31:00,65.1,63.9,29.72,WSW,248,2.8,2.8,96,0.16,,,0.28,0.12,VWS V14.01,2013-09-21 03:31:00,
2013-09-20 23:32:00,64.9,63.8,29.73,WSW,251,1.3,1.3,96,0.16,,,0.28,0.00,VWS V14.01,2013-09-21 03:32:00,
2013-09-20 23:33:00,64.9,63.7,29.73,WSW,244,1.3,1.3,96,0.16,,,0.28,0.00,VWS V14.01,2013-09-21 03:33:00,
2013-09-20 23:36:00,65.0,63.7,29.76,WSW,255,2.2,2.2,96,0.16,,,0.28,0.00,VWS V14.01,2013-09-21 03:36:00,
2013-09-20 23:37:00,65.0,63.7,29.74,WSW,246,3.9,3.9,95,0.16,,,0.28,0.00,VWS V14.01,2013-09-21 03:37:00,
2013-09-20 23:38:00,64.8,63.5,29.73,West,261,2.2,3.9,95,0.16,,,0.28,0.43,VWS V14.01,2013-09-21 03:38:00,
2013-09-20 23:42:00,65.1,63.7,29.73,West,260,2.8,2.8,95,0.12,,,0.28,0.73,VWS V14.01,2013-09-21 03:42:00,
2013-09-20 23:44:00,65.2,63.8,29.73,WSW,251,3.4,3.4,95,0.12,,,0.28,0.73,VWS V14.01,2013-09-21 03:44:00,
2013-09-20 23:47:00,64.8,62.3,29.73,West,263,0.0,1.3,92,0.12,,,0.28,0.12,VWS V14.01,2013-09-21 03:47:00,
2013-09-20 23:49:00,64.9,63.5,29.73,WSW,253,0.0,0.0,95,0.12,,,0.28,0.00,VWS V14.01,2013-09-21 03:49:00,
2013-09-20 23:50:00,64.8,62.3,29.73,West,268,0.0,0.0,92,0.12,,,0.28,0.00,VWS V14.01,2013-09-21 03:50:00,
2013-09-20 23:52:00,64.8,63.5,29.73,NW,322,1.3,4.2,96,0.12,,,0.28,0.00,VWS V14.01,2013-09-21 03:52:00,
2013-09-20 23:53:00,64.8,63.5,29.73,NW,322,1.3,4.2,96,0.12,,,0.28,0.00,VWS V14.01,2013-09-21 03:53:00,
2013-09-20 23:55:00,64.8,63.7,29.74,WNW,297,2.2,2.2,96,0.12,,,0.28,0.00,VWS V14.01,2013-09-21 03:55:00,
2013-09-20 23:56:00,64.9,62.5,29.73,NW,326,1.5,2.2,92,0.12,,,0.28,0.00,VWS V14.01,2013-09-21 03:56:00,
2013-09-20 23:57:00,64.9,63.8,29.74,WNW,302,1.0,2.0,96,0.12,,,0.28,0.12,VWS V14.01,2013-09-21 03:57:00,
2013-09-20 23:58:00,65.3,63.0,29.73,West,276,3.2,4.5,92,0.12,,,0.28,0.43,VWS V14.01,2013-09-21 03:58:00,
2013-09-20 23:59:00,65.1,63.9,29.73,West,280,2.2,2.2,96,0.12,,,0.28,0.00,VWS V14.01,2013-09-21 03:59:00,